Time,TemperatureF,DewpointF,PressureIn,WindDirection,WindDirectionDegrees,WindSpeedMPH,WindSpeedGustMPH,Humidity,HourlyPrecipIn,Conditions,Clouds,dailyrainin,SolarRadiationWatts/m^2,SoftwareType,DateUTC
2013-07-05 00:00:00,78.6,72.7,30.07,West,261,7.0,14.0,82,0.00,,OVC012,0.00,0.00,VWS V14.01,2013-07-05 04:00:00,
2013-07-05 00:01:00,78.6,72.7,30.07,SW,215,3.0,11.0,82,0.00,,CLR,0.00,0.00,VWS V14.01,2013-07-05 04:01:00,
2013-07-05 00:02:00,78.6,72.7,30.07,WSW,252,5.0,11.0,82,0.00,,CLR,0.00,0.00,VWS V14.01,2013-07-05 04:02:00,
2013-07-05 00:03:00,78.5,72.6,30.07,SW,225,5.0,10.0,82,0.00,,CLR,0.00,0.00,VWS V14.01,2013-07-05 04:03:00,
2013-07-05 00:04:00,78.6,72.7,30.07,SW,233,5.0,10.0,82,0.00,,CLR,0.00,0.00,VWS V14.01,2013-07-05 04:04:00,
2013-07-05 00:05:00,78.6,72.7,30.07,WSW,252,5.0,11.0,82,0.00,,OVC012,0.00,0.00,VWS V14.01,2013-07-05 04:05:00,
2013-07-05 00:09:00,78.4,72.4,30.07,SW,226,3.0,4.0,82,0.00,,CLR,0.00,0.00,VWS V14.01,2013-07-05 04:09:00,
2013-07-05 00:10:00,78.5,72.6,30.07,WSW,244,3.0,10.0,82,0.00,,OVC012,0.00,0.00,VWS V14.01,2013-07-05 04:10:00,
2013-07-05 00:14:00,78.3,72.7,30.07,WSW,241,2.0,6.0,83,0.00,,CLR,0.00,0.00,VWS V14.01,2013-07-05 04:14:00,
2013-07-05 00:15:00,78.3,72.7,30.07,SW,225,3.0,9.0,83,0.00,,OVC012,0.00,0.00,VWS V14.01,2013-07-05 04:15:00,
2013-07-05 00:19:00,78.2,72.6,30.07,SW,217,5.0,8.0,83,0.00,,CLR,0.00,0.00,VWS V14.01,2013-07-05 04:19:00,
2013-07-05 00:20:00,78.2,72.6,30.07,WSW,258,8.0,10.0,83,0.00,,OVC012,0.00,0.00,VWS V14.01,2013-07-05 04:20:00,
2013-07-05 00:24:00,78.1,72.5,30.07,WSW,247,3.0,7.0,83,0.00,,CLR,0.00,0.00,VWS V14.01,2013-07-05 04:24:00,
2013-07-05 00:25:00,78.1,72.5,30.07,WSW,245,4.0,11.0,83,0.00,,OVC012,0.00,0.00,VWS V14.01,2013-07-05 04:25:00,
2013-07-05 00:29:00,78.0,72.4,30.07,WSW,252,3.0,7.0,83,0.00,,CLR,0.00,0.00,VWS V14.01,2013-07-05 04:29:00,
2013-07-05 00:30:00,78.1,72.5,30.07,WSW,244,5.0,9.0,83,0.00,,OVC012,0.00,0.00,VWS V14.01,2013-07-05 04:30:00,
2013-07-05 00:34:00,77.9,72.3,30.06,West,261,6.0,9.0,83,0.00,,CLR,0.00,0.00,VWS V14.01,2013-07-05 04:34:00,
2013-07-05 00:35:00,77.9,72.3,30.07,SW,226,9.0,10.0,83,0.00,,OVC012,0.00,0.00,VWS V14.01,2013-07-05 04:35:00,
2013-07-05 00:39:00,77.8,72.2,30.06,WSW,254,5.0,6.0,83,0.00,,CLR,0.00,0.00,VWS V14.01,2013-07-05 04:39:00,
2013-07-05 00:40:00,77.9,72.3,30.06,SW,236,5.0,9.0,83,0.00,,OVC012,0.00,0.00,VWS V14.01,2013-07-05 04:40:00,
2013-07-05 00:44:00,77.7,72.1,30.07,West,261,4.0,9.0,83,0.00,,CLR,0.00,0.00,VWS V14.01,2013-07-05 04:44:00,
2013-07-05 00:45:00,77.8,72.2,30.06,WSW,252,0.0,6.0,83,0.00,,OVC012,0.00,0.00,VWS V14.01,2013-07-05 04:45:00,
2013-07-05 00:49:00,77.6,72.4,30.06,SW,225,7.0,7.0,84,0.00,,CLR,0.00,0.00,VWS V14.01,2013-07-05 04:49:00,
2013-07-05 00:50:00,77.6,72.4,30.07,WSW,246,2.0,9.0,84,0.00,,OVC012,0.00,0.00,VWS V14.01,2013-07-05 04:50:00,
2013-07-05 00:54:00,77.6,72.0,30.06,WSW,240,4.0,7.0,83,0.00,,CLR,0.00,0.00,VWS V14.01,2013-07-05 04:54:00,
2013-07-05 00:55:00,77.6,72.0,30.06,WSW,251,4.0,10.0,83,0.00,,OVC012,0.00,0.00,VWS V14.01,2013-07-05 04:55:00,
2013-07-05 01:00:00,77.5,72.3,30.07,WSW,255,3.0,8.0,84,0.00,,CLR,0.00,0.00,VWS V14.01,2013-07-05 05:00:00,
2013-07-05 01:05:00,77.4,72.2,30.07,WSW,254,1.0,6.0,84,0.00,,CLR,0.00,0.00,VWS V14.01,2013-07-05 05:05:00,
2013-07-05 01:10:00,77.4,72.2,30.07,SW,221,5.0,6.0,84,0.00,,CLR,0.00,0.00,VWS V14.01,2013-07-05 05:10:00,
2013-07-05 01:15:00,77.3,72.1,30.07,WSW,245,3.0,6.0,84,0.00,,CLR,0.00,0.00,VWS V14.01,2013-07-05 05:15:00,
2013-07-05 01:20:00,77.2,72.0,30.07,SW,215,2.0,8.0,84,0.00,,CLR,0.00,0.00,VWS V14.01,2013-07-05 05:20:00,
2013-07-05 01:25:00,77.2,72.0,30.07,SW,227,3.0,11.0,84,0.00,,CLR,0.00,0.00,VWS V14.01,2013-07-05 05:25:00,
2013-07-05 01:30:00,77.1,71.9,30.07,WSW,249,4.0,7.0,84,0.00,,CLR,0.00,0.00,VWS V14.01,2013-07-05 05:30:00,
2013-07-05 01:35:00,77.0,71.8,30.07,WSW,254,3.0,5.0,84,0.00,,CLR,0.00,0.00,VWS V14.01,2013-07-05 05:35:00,
2013-07-05 01:40:00,77.0,71.8,30.06,SW,218,6.0,9.0,84,0.00,,CLR,0.00,0.00,VWS V14.01,2013-07-05 05:40:00,
2013-07-05 01:45:00,76.9,71.7,30.06,WSW,245,4.0,7.0,84,0.00,,CLR,0.00,0.00,VWS V14.01,2013-07-05 05:45:00,
2013-07-05 01:50:00,76.8,71.6,30.06,WSW,243,5.0,9.0,84,0.00,,CLR,0.00,0.00,VWS V14.01,2013-07-05 05:50:00,
2013-07-05 01:55:00,76.8,71.6,30.06,WSW,254,1.0,5.0,84,0.00,,CLR,0.00,0.00,VWS V14.01,2013-07-05 05:55:00,
2013-07-05 02:00:00,76.7,71.5,30.06,WSW,242,2.0,6.0,84,0.00,,CLR,0.00,0.00,VWS V14.01,2013-07-05 06:00:00,
2013-07-05 02:05:00,76.6,71.8,30.06,WSW,240,2.0,8.0,85,0.00,,CLR,0.00,0.00,VWS V14.01,2013-07-05 06:05:00,
2013-07-05 02:10:00,76.6,71.8,30.06,WSW,239,3.0,8.0,85,0.00,,OVC012,0.00,0.00,VWS V14.01,2013-07-05 06:10:00,
2013-07-05 02:11:00,76.5,71.7,30.06,SW,233,4.0,5.0,85,0.00,,CLR,0.00,0.00,VWS V14.01,2013-07-05 06:11:00,
2013-07-05 02:15:00,76.5,71.7,30.06,SW,232,3.0,5.0,85,0.00,,OVC012,0.00,0.00,VWS V14.01,2013-07-05 06:15:00,
2013-07-05 02:16:00,76.4,71.6,30.06,WSW,244,1.0,7.0,85,0.00,,CLR,0.00,0.00,VWS V14.01,2013-07-05 06:16:00,
2013-07-05 02:20:00,76.4,71.6,30.06,WSW,241,4.0,7.0,85,0.00,,OVC012,0.00,0.00,VWS V14.01,2013-07-05 06:20:00,
2013-07-05 02:21:00,76.4,71.6,30.06,WSW,242,1.0,4.0,85,0.00,,CLR,0.00,0.00,VWS V14.01,2013-07-05 06:21:00,
2013-07-05 02:25:00,76.4,71.6,30.06,SW,217,3.0,6.0,85,0.00,,OVC012,0.00,0.00,VWS V14.01,2013-07-05 06:25:00,
2013-07-05 02:26:00,76.3,71.5,30.06,West,263,2.0,4.0,85,0.00,,CLR,0.00,0.00,VWS V14.01,2013-07-05 06:26:00,
2013-07-05 02:30:00,76.3,71.5,30.06,WSW,257,3.0,4.0,85,0.00,,OVC012,0.00,0.00,VWS V14.01,2013-07-05 06:30:00,
2013-07-05 02:31:00,76.2,71.4,30.06,WSW,246,2.0,6.0,85,0.00,,CLR,0.00,0.00,VWS V14.01,2013-07-05 06:31:00,
2013-07-05 02:35:00,76.2,71.4,30.06,WSW,244,4.0,6.0,85,0.00,,OVC012,0.00,0.00,VWS V14.01,2013-07-05 06:35:00,
2013-07-05 02:36:00,76.1,71.3,30.06,SW,227,2.0,5.0,85,0.00,,CLR,0.00,0.00,VWS V14.01,2013-07-05 06:36:00,
2013-07-05 02:40:00,76.1,71.3,30.06,WSW,242,2.0,5.0,85,0.00,,OVC012,0.00,0.00,VWS V14.01,2013-07-05 06:40:00,
2013-07-05 02:41:00,76.0,71.5,30.06,SW,227,1.0,7.0,86,0.00,,CLR,0.00,0.00,VWS V14.01,2013-07-05 06:41:00,
2013-07-05 02:45:00,76.0,71.5,30.06,SW,228,2.0,7.0,86,0.00,,OVC012,0.00,0.00,VWS V14.01,2013-07-05 06:45:00,
2013-07-05 02:46:00,75.9,71.4,30.06,SW,227,4.0,7.0,86,0.00,,CLR,0.00,0.00,VWS V14.01,2013-07-05 06:46:00,
2013-07-05 02:50:00,76.0,71.5,30.06,SW,228,3.0,7.0,86,0.00,,OVC012,0.00,0.00,VWS V14.01,2013-07-05 06:50:00,
2013-07-05 02:51:00,75.9,71.4,30.06,SW,229,1.0,4.0,86,0.00,,CLR,0.00,0.00,VWS V14.01,2013-07-05 06:51:00,
2013-07-05 02:55:00,75.9,71.4,30.06,SW,229,0.0,4.0,86,0.00,,OVC012,0.00,0.00,VWS V14.01,2013-07-05 06:55:00,
2013-07-05 02:56:00,75.8,71.3,30.06,SW,234,2.0,7.0,86,0.00,,CLR,0.00,0.00,VWS V14.01,2013-07-05 06:56:00,
2013-07-05 03:00:00,75.8,71.3,30.07,SW,234,0.0,7.0,86,0.00,,OVC012,0.00,0.00,VWS V14.01,2013-07-05 07:00:00,
2013-07-05 03:01:00,75.7,71.2,30.07,SW,235,3.0,4.0,86,0.00,,CLR,0.00,0.00,VWS V14.01,2013-07-05 07:01:00,
2013-07-05 03:05:00,75.7,71.2,30.07,WSW,238,2.0,6.0,86,0.00,,OVC012,0.00,0.00,VWS V14.01,2013-07-05 07:05:00,
2013-07-05 03:06:00,75.7,71.2,30.06,WSW,238,4.0,4.0,86,0.00,,CLR,0.00,0.00,VWS V14.01,2013-07-05 07:06:00,
2013-07-05 03:10:00,75.7,71.2,30.06,WSW,238,1.0,4.0,86,0.00,,OVC012,0.00,0.00,VWS V14.01,2013-07-05 07:10:00,
2013-07-05 03:11:00,75.6,71.1,30.07,SW,230,3.0,5.0,86,0.00,,CLR,0.00,0.00,VWS V14.01,2013-07-05 07:11:00,
2013-07-05 03:15:00,75.6,71.1,30.07,SW,229,2.0,5.0,86,0.00,,OVC012,0.00,0.00,VWS V14.01,2013-07-05 07:15:00,
2013-07-05 03:16:00,75.5,71.0,30.07,SW,229,0.0,4.0,86,0.00,,CLR,0.00,0.00,VWS V14.01,2013-07-05 07:16:00,
2013-07-05 03:20:00,75.5,71.0,30.07,SW,229,3.0,4.0,86,0.00,,OVC012,0.00,0.00,VWS V14.01,2013-07-05 07:20:00,
2013-07-05 03:22:00,75.4,71.3,30.06,SW,229,3.0,3.0,87,0.00,,CLR,0.00,0.00,VWS V14.01,2013-07-05 07:22:00,
2013-07-05 03:25:00,75.4,71.3,30.06,SW,229,1.0,3.0,87,0.00,,OVC012,0.00,0.00,VWS V14.01,2013-07-05 07:25:00,
2013-07-05 03:27:00,75.3,71.2,30.06,SW,229,2.0,3.0,87,0.00,,CLR,0.00,0.00,VWS V14.01,2013-07-05 07:27:00,
2013-07-05 03:30:00,75.3,71.2,30.06,SW,229,0.0,3.0,87,0.00,,OVC012,0.00,0.00,VWS V14.01,2013-07-05 07:30:00,
2013-07-05 03:32:00,75.2,71.1,30.06,SW,229,0.0,3.0,87,0.00,,CLR,0.00,0.00,VWS V14.01,2013-07-05 07:32:00,
2013-07-05 03:35:00,75.2,71.1,30.06,SW,229,0.0,3.0,87,0.00,,OVC012,0.00,0.00,VWS V14.01,2013-07-05 07:35:00,
2013-07-05 03:37:00,75.1,71.0,30.06,SW,229,0.0,3.0,87,0.00,,CLR,0.00,0.00,VWS V14.01,2013-07-05 07:37:00,
2013-07-05 03:40:00,75.1,71.0,30.06,SW,229,0.0,3.0,87,0.00,,OVC012,0.00,0.00,VWS V14.01,2013-07-05 07:40:00,
2013-07-05 03:42:00,75.0,70.9,30.07,SW,229,1.0,4.0,87,0.00,,CLR,0.00,0.00,VWS V14.01,2013-07-05 07:42:00,
2013-07-05 03:45:00,75.0,70.9,30.07,SW,229,1.0,4.0,87,0.00,,OVC012,0.00,0.00,VWS V14.01,2013-07-05 07:45:00,
2013-07-05 03:47:00,74.9,71.1,30.07,SW,229,0.0,4.0,88,0.00,,CLR,0.00,0.00,VWS V14.01,2013-07-05 07:47:00,
2013-07-05 03:50:00,74.9,71.1,30.07,SW,229,0.0,4.0,88,0.00,,OVC012,0.00,0.00,VWS V14.01,2013-07-05 07:50:00,
2013-07-05 03:52:00,74.9,70.8,30.07,SW,229,2.0,5.0,87,0.00,,CLR,0.00,0.00,VWS V14.01,2013-07-05 07:52:00,
2013-07-05 03:55:00,74.8,70.7,30.07,SW,229,2.0,5.0,87,0.00,,OVC012,0.00,0.00,VWS V14.01,2013-07-05 07:55:00,
2013-07-05 03:57:00,74.8,71.0,30.07,SW,229,0.0,2.0,88,0.00,,CLR,0.00,0.00,VWS V14.01,2013-07-05 07:57:00,
2013-07-05 04:00:00,74.8,71.0,30.07,SW,229,0.0,2.0,88,0.00,,OVC012,0.00,0.00,VWS V14.01,2013-07-05 08:00:00,
2013-07-05 04:02:00,74.7,70.9,30.07,SW,230,0.0,3.0,88,0.00,,CLR,0.00,0.00,VWS V14.01,2013-07-05 08:02:00,
2013-07-05 04:05:00,74.7,70.9,30.07,SW,230,0.0,3.0,88,0.00,,OVC012,0.00,0.00,VWS V14.01,2013-07-05 08:05:00,
2013-07-05 04:07:00,74.6,70.8,30.07,SW,229,1.0,2.0,88,0.00,,CLR,0.00,0.00,VWS V14.01,2013-07-05 08:07:00,
2013-07-05 04:10:00,74.6,70.8,30.07,SW,229,1.0,2.0,88,0.00,,OVC012,0.00,0.00,VWS V14.01,2013-07-05 08:10:00,
2013-07-05 04:12:00,74.6,70.8,30.07,WSW,238,0.0,4.0,88,0.00,,CLR,0.00,0.00,VWS V14.01,2013-07-05 08:12:00,
2013-07-05 04:15:00,74.6,70.8,30.07,WSW,238,0.0,4.0,88,0.00,,OVC012,0.00,0.00,VWS V14.01,2013-07-05 08:15:00,
2013-07-05 04:17:00,74.5,70.7,30.07,WSW,238,2.0,2.0,88,0.00,,CLR,0.00,0.00,VWS V14.01,2013-07-05 08:17:00,
2013-07-05 04:20:00,74.5,70.7,30.07,WSW,238,2.0,2.0,88,0.00,,OVC012,0.00,0.00,VWS V14.01,2013-07-05 08:20:00,
2013-07-05 04:22:00,74.5,70.7,30.07,WSW,238,0.0,1.0,88,0.00,,CLR,0.00,0.00,VWS V14.01,2013-07-05 08:22:00,
2013-07-05 04:25:00,74.5,70.7,30.07,WSW,238,0.0,3.0,88,0.00,,OVC012,0.00,0.00,VWS V14.01,2013-07-05 08:25:00,
2013-07-05 04:27:00,74.4,70.6,30.07,WSW,238,1.0,2.0,88,0.00,,CLR,0.00,0.00,VWS V14.01,2013-07-05 08:27:00,
2013-07-05 04:30:00,74.4,70.6,30.07,WSW,238,2.0,2.0,88,0.00,,OVC012,0.00,0.00,VWS V14.01,2013-07-05 08:30:00,
2013-07-05 04:32:00,74.4,70.6,30.07,WSW,238,1.0,1.0,88,0.00,,CLR,0.00,0.00,VWS V14.01,2013-07-05 08:32:00,
2013-07-05 04:35:00,74.4,70.6,30.07,WSW,238,0.0,3.0,88,0.00,,OVC012,0.00,0.00,VWS V14.01,2013-07-05 08:35:00,
2013-07-05 04:38:00,74.4,70.6,30.07,WSW,238,2.0,3.0,88,0.00,,CLR,0.00,0.00,VWS V14.01,2013-07-05 08:38:00,
2013-07-05 04:40:00,74.4,70.6,30.07,WSW,238,1.0,1.0,88,0.00,,OVC012,0.00,0.00,VWS V14.01,2013-07-05 08:40:00,
2013-07-05 04:43:00,74.3,70.8,30.07,WSW,238,0.0,1.0,89,0.00,,CLR,0.00,0.00,VWS V14.01,2013-07-05 08:43:00,
2013-07-05 04:45:00,74.3,70.8,30.07,WSW,238,1.0,3.0,89,0.00,,OVC012,0.00,0.00,VWS V14.01,2013-07-05 08:45:00,
2013-07-05 04:48:00,74.3,70.8,30.07,WSW,238,2.0,2.0,89,0.00,,CLR,0.00,0.00,VWS V14.01,2013-07-05 08:48:00,
2013-07-05 04:50:00,74.3,70.8,30.07,WSW,239,2.0,4.0,89,0.00,,OVC012,0.00,0.00,VWS V14.01,2013-07-05 08:50:00,
2013-07-05 04:53:00,74.3,70.8,30.07,WSW,238,0.0,1.0,89,0.00,,CLR,0.00,0.00,VWS V14.01,2013-07-05 08:53:00,
2013-07-05 04:55:00,74.3,70.8,30.07,WSW,238,0.0,4.0,89,0.00,,OVC012,0.00,0.00,VWS V14.01,2013-07-05 08:55:00,
2013-07-05 04:58:00,74.2,70.8,30.08,WSW,239,1.0,1.0,89,0.00,,CLR,0.00,0.00,VWS V14.01,2013-07-05 08:58:00,
2013-07-05 05:00:00,74.3,70.8,30.07,WSW,239,1.0,2.0,89,0.00,,OVC012,0.00,0.00,VWS V14.01,2013-07-05 09:00:00,
2013-07-05 05:04:00,74.2,70.8,30.07,WSW,252,2.0,3.0,89,0.00,,CLR,0.00,0.00,VWS V14.01,2013-07-05 09:04:00,
2013-07-05 05:05:00,74.2,70.8,30.07,WSW,252,1.0,5.0,89,0.00,,OVC012,0.00,0.00,VWS V14.01,2013-07-05 09:05:00,
2013-07-05 05:09:00,74.2,70.8,30.07,WSW,252,3.0,4.0,89,0.00,,CLR,0.00,0.00,VWS V14.01,2013-07-05 09:09:00,
2013-07-05 05:10:00,74.2,70.8,30.08,WSW,252,4.0,4.0,89,0.00,,OVC012,0.00,0.00,VWS V14.01,2013-07-05 09:10:00,
2013-07-05 05:15:00,74.3,70.8,30.08,WSW,252,2.0,4.0,89,0.00,,CLR,0.00,0.00,VWS V14.01,2013-07-05 09:15:00,
2013-07-05 05:20:00,74.3,70.8,30.08,WSW,252,4.0,4.0,89,0.00,,CLR,0.00,5.00,VWS V14.01,2013-07-05 09:20:00,
2013-07-05 05:25:00,74.3,70.8,30.08,WSW,252,5.0,6.0,89,0.00,,CLR,0.00,9.00,VWS V14.01,2013-07-05 09:25:00,
2013-07-05 05:30:00,74.4,70.9,30.08,West,261,3.0,6.0,89,0.00,,OVC012,0.00,9.00,VWS V14.01,2013-07-05 09:30:00,
2013-07-05 05:31:00,74.4,70.9,30.08,West,265,4.0,7.0,89,0.00,,CLR,0.00,12.00,VWS V14.01,2013-07-05 09:31:00,
2013-07-05 05:35:00,74.5,70.7,30.08,West,265,4.0,7.0,88,0.00,,OVC012,0.00,12.00,VWS V14.01,2013-07-05 09:35:00,
2013-07-05 05:36:00,74.5,70.7,30.08,West,265,1.0,7.0,88,0.00,,CLR,0.00,14.00,VWS V14.01,2013-07-05 09:36:00,
2013-07-05 05:40:00,74.6,70.8,30.08,West,263,2.0,7.0,88,0.00,,OVC012,0.00,16.00,VWS V14.01,2013-07-05 09:40:00,
2013-07-05 05:41:00,74.6,70.8,30.08,SW,225,4.0,9.0,88,0.00,,CLR,0.00,19.00,VWS V14.01,2013-07-05 09:41:00,
2013-07-05 05:45:00,74.7,70.9,30.08,West,261,2.0,9.0,88,0.00,,OVC012,0.00,21.00,VWS V14.01,2013-07-05 09:45:00,
2013-07-05 05:46:00,74.8,71.0,30.08,WSW,245,3.0,8.0,88,0.00,,CLR,0.00,26.00,VWS V14.01,2013-07-05 09:46:00,
2013-07-05 05:50:00,74.9,71.1,30.08,WSW,241,3.0,8.0,88,0.00,,OVC012,0.00,28.00,VWS V14.01,2013-07-05 09:50:00,
2013-07-05 05:51:00,75.0,71.2,30.08,West,267,5.0,8.0,88,0.00,,CLR,0.00,33.00,VWS V14.01,2013-07-05 09:51:00,
2013-07-05 05:55:00,75.0,71.2,30.08,WSW,244,2.0,8.0,88,0.00,,OVC012,0.00,35.00,VWS V14.01,2013-07-05 09:55:00,
2013-07-05 05:56:00,75.2,71.1,30.08,West,262,1.0,6.0,87,0.00,,CLR,0.00,42.00,VWS V14.01,2013-07-05 09:56:00,
2013-07-05 06:00:00,75.2,71.1,30.08,West,259,3.0,6.0,87,0.00,,OVC012,0.00,44.00,VWS V14.01,2013-07-05 10:00:00,
2013-07-05 06:02:00,75.3,71.2,30.08,WSW,251,2.0,9.0,87,0.00,,CLR,0.00,54.00,VWS V14.01,2013-07-05 10:02:00,
2013-07-05 06:05:00,75.3,71.2,30.08,WSW,251,4.0,9.0,87,0.00,,OVC012,0.00,54.00,VWS V14.01,2013-07-05 10:05:00,
2013-07-05 06:07:00,75.4,71.3,30.08,West,273,1.0,8.0,87,0.00,,CLR,0.00,65.00,VWS V14.01,2013-07-05 10:07:00,
2013-07-05 06:10:00,75.4,71.3,30.08,West,273,1.0,8.0,87,0.00,,OVC012,0.00,65.00,VWS V14.01,2013-07-05 10:10:00,
2013-07-05 06:12:00,75.5,71.4,30.09,West,261,3.0,9.0,87,0.00,,CLR,0.00,74.00,VWS V14.01,2013-07-05 10:12:00,
2013-07-05 06:15:00,75.5,71.4,30.09,West,261,3.0,9.0,87,0.00,,OVC012,0.00,74.00,VWS V14.01,2013-07-05 10:15:00,
2013-07-05 06:17:00,75.6,71.5,30.09,WSW,241,3.0,9.0,87,0.00,,CLR,0.00,88.00,VWS V14.01,2013-07-05 10:17:00,
2013-07-05 06:20:00,75.6,71.5,30.09,WSW,241,3.0,9.0,87,0.00,,OVC012,0.00,88.00,VWS V14.01,2013-07-05 10:20:00,
2013-07-05 06:22:00,75.8,71.3,30.08,West,264,3.0,7.0,86,0.00,,CLR,0.00,102.00,VWS V14.01,2013-07-05 10:22:00,
2013-07-05 06:25:00,75.8,71.3,30.08,West,264,3.0,7.0,86,0.00,,OVC012,0.00,102.00,VWS V14.01,2013-07-05 10:25:00,
2013-07-05 06:27:00,76.0,71.5,30.09,West,260,4.0,7.0,86,0.00,,CLR,0.00,116.00,VWS V14.01,2013-07-05 10:27:00,
2013-07-05 06:30:00,76.0,71.5,30.09,West,260,4.0,7.0,86,0.00,,OVC012,0.00,116.00,VWS V14.01,2013-07-05 10:30:00,
2013-07-05 06:32:00,76.1,71.6,30.09,WSW,256,5.0,7.0,86,0.00,,CLR,0.00,130.00,VWS V14.01,2013-07-05 10:32:00,
2013-07-05 06:35:00,76.1,71.6,30.09,WSW,256,5.0,7.0,86,0.00,,OVC012,0.00,130.00,VWS V14.01,2013-07-05 10:35:00,
2013-07-05 06:37:00,76.3,71.8,30.09,SW,236,6.0,10.0,86,0.00,,CLR,0.00,146.00,VWS V14.01,2013-07-05 10:37:00,
2013-07-05 06:40:00,76.3,71.8,30.09,SW,236,6.0,10.0,86,0.00,,OVC012,0.00,146.00,VWS V14.01,2013-07-05 10:40:00,
2013-07-05 06:43:00,76.4,71.6,30.09,WSW,251,3.0,6.0,85,0.00,,CLR,0.00,163.00,VWS V14.01,2013-07-05 10:43:00,
2013-07-05 06:45:00,76.4,71.6,30.09,West,265,3.0,8.0,85,0.00,,OVC012,0.00,163.00,VWS V14.01,2013-07-05 10:45:00,
2013-07-05 06:48:00,76.7,71.9,30.09,SW,232,1.0,7.0,85,0.00,,CLR,0.00,179.00,VWS V14.01,2013-07-05 10:48:00,
2013-07-05 06:50:00,76.6,71.8,30.09,West,260,5.0,6.0,85,0.00,,OVC012,0.00,178.00,VWS V14.01,2013-07-05 10:50:00,
2013-07-05 06:53:00,76.9,72.1,30.09,WSW,238,4.0,6.0,85,0.00,,CLR,0.00,199.00,VWS V14.01,2013-07-05 10:53:00,
2013-07-05 06:55:00,76.9,72.1,30.09,West,272,6.0,7.0,85,0.00,,OVC012,0.00,193.00,VWS V14.01,2013-07-05 10:55:00,
2013-07-05 06:58:00,77.1,71.9,30.09,WSW,243,5.0,6.0,84,0.00,,CLR,0.00,216.00,VWS V14.01,2013-07-05 10:58:00,
2013-07-05 07:00:00,77.0,71.8,30.09,WSW,251,3.0,9.0,84,0.00,,OVC012,0.00,209.00,VWS V14.01,2013-07-05 11:00:00,
2013-07-05 07:03:00,77.3,72.1,30.09,WSW,256,4.0,5.0,84,0.00,,CLR,0.00,232.00,VWS V14.01,2013-07-05 11:03:00,
2013-07-05 07:05:00,77.2,72.0,30.09,SW,221,2.0,6.0,84,0.00,,OVC012,0.00,227.00,VWS V14.01,2013-07-05 11:05:00,
2013-07-05 07:09:00,77.4,72.2,30.09,West,264,1.0,8.0,84,0.00,,CLR,0.00,246.00,VWS V14.01,2013-07-05 11:09:00,
2013-07-05 07:10:00,77.4,72.2,30.09,West,268,6.0,7.0,84,0.00,,OVC012,0.00,241.00,VWS V14.01,2013-07-05 11:10:00,
2013-07-05 07:14:00,77.6,72.0,30.09,WSW,251,7.0,9.0,83,0.00,,CLR,0.00,260.00,VWS V14.01,2013-07-05 11:14:00,
2013-07-05 07:15:00,77.5,71.9,30.09,WSW,244,5.0,8.0,83,0.00,,OVC012,0.00,255.00,VWS V14.01,2013-07-05 11:15:00,
2013-07-05 07:19:00,77.7,72.1,30.09,WSW,250,3.0,9.0,83,0.00,,CLR,0.00,276.00,VWS V14.01,2013-07-05 11:19:00,
2013-07-05 07:20:00,77.7,72.1,30.09,West,262,9.0,10.0,83,0.00,,OVC012,0.00,271.00,VWS V14.01,2013-07-05 11:20:00,
2013-07-05 07:25:00,77.8,72.2,30.09,West,263,10.0,10.0,83,0.00,,CLR,0.00,292.00,VWS V14.01,2013-07-05 11:25:00,
2013-07-05 07:30:00,78.0,72.4,30.09,SW,234,5.0,10.0,83,0.00,,CLR,0.00,308.00,VWS V14.01,2013-07-05 11:30:00,
2013-07-05 07:35:00,78.2,72.3,30.09,West,280,3.0,12.0,82,0.00,,CLR,0.00,320.00,VWS V14.01,2013-07-05 11:35:00,
2013-07-05 07:40:00,78.4,72.4,30.09,West,279,4.0,10.0,82,0.00,,CLR,0.00,334.00,VWS V14.01,2013-07-05 11:40:00,
2013-07-05 07:45:00,78.6,72.7,30.09,WSW,258,8.0,12.0,82,0.00,,CLR,0.00,350.00,VWS V14.01,2013-07-05 11:45:00,
2013-07-05 07:50:00,78.6,72.7,30.10,West,273,9.0,12.0,82,0.00,,OVC012,0.00,357.00,VWS V14.01,2013-07-05 11:50:00,
2013-07-05 07:51:00,78.8,72.8,30.09,West,268,3.0,10.0,82,0.00,,CLR,0.00,369.00,VWS V14.01,2013-07-05 11:51:00,
2013-07-05 07:55:00,78.8,72.8,30.10,West,277,4.0,10.0,82,0.00,,OVC012,0.00,374.00,VWS V14.01,2013-07-05 11:55:00,
2013-07-05 07:56:00,79.0,72.7,30.09,WSW,250,4.0,10.0,81,0.00,,CLR,0.00,387.00,VWS V14.01,2013-07-05 11:56:00,
2013-07-05 08:00:00,79.0,72.7,30.09,West,260,2.0,10.0,81,0.00,,OVC012,0.00,388.00,VWS V14.01,2013-07-05 12:00:00,
2013-07-05 08:02:00,79.3,73.0,30.09,WSW,254,4.0,13.0,81,0.00,,CLR,0.00,403.00,VWS V14.01,2013-07-05 12:02:00,
2013-07-05 08:05:00,79.3,73.0,30.09,WSW,257,2.0,13.0,81,0.00,,OVC012,0.00,403.00,VWS V14.01,2013-07-05 12:05:00,
2013-07-05 08:07:00,79.5,72.8,30.09,West,277,6.0,9.0,80,0.00,,CLR,0.00,418.00,VWS V14.01,2013-07-05 12:07:00,
2013-07-05 08:10:00,79.5,73.2,30.09,West,263,5.0,9.0,81,0.00,,OVC012,0.00,420.00,VWS V14.01,2013-07-05 12:10:00,
2013-07-05 08:12:00,79.7,73.0,30.09,SW,226,3.0,8.0,80,0.00,,CLR,0.00,429.00,VWS V14.01,2013-07-05 12:12:00,
2013-07-05 08:15:00,79.8,73.1,30.09,West,277,4.0,8.0,80,0.00,,OVC012,0.00,434.00,VWS V14.01,2013-07-05 12:15:00,
2013-07-05 08:17:00,80.0,72.9,30.10,West,274,4.0,10.0,79,0.00,,CLR,0.00,450.00,VWS V14.01,2013-07-05 12:17:00,
2013-07-05 08:20:00,80.1,73.0,30.10,WNW,282,5.0,10.0,79,0.00,,OVC012,0.00,454.00,VWS V14.01,2013-07-05 12:20:00,
2013-07-05 08:22:00,80.3,73.2,30.09,SW,223,4.0,8.0,79,0.00,,CLR,0.00,464.00,VWS V14.01,2013-07-05 12:22:00,
2013-07-05 08:25:00,80.3,73.2,30.09,WNW,286,7.0,8.0,79,0.00,,OVC012,0.00,466.00,VWS V14.01,2013-07-05 12:25:00,
2013-07-05 08:27:00,80.5,73.4,30.09,West,259,2.0,8.0,79,0.00,,CLR,0.00,476.00,VWS V14.01,2013-07-05 12:27:00,
2013-07-05 08:30:00,80.5,73.4,30.09,WSW,257,6.0,8.0,79,0.00,,OVC012,0.00,480.00,VWS V14.01,2013-07-05 12:30:00,
2013-07-05 08:32:00,80.8,73.7,30.09,WSW,239,3.0,8.0,79,0.00,,CLR,0.00,492.00,VWS V14.01,2013-07-05 12:32:00,
2013-07-05 08:35:00,80.8,73.7,30.09,West,261,5.0,8.0,79,0.00,,OVC012,0.00,492.00,VWS V14.01,2013-07-05 12:35:00,
2013-07-05 08:37:00,81.1,73.6,30.09,West,275,6.0,8.0,78,0.00,,CLR,0.00,506.00,VWS V14.01,2013-07-05 12:37:00,
2013-07-05 08:40:00,81.1,73.6,30.09,WSW,255,7.0,8.0,78,0.00,,OVC012,0.00,506.00,VWS V14.01,2013-07-05 12:40:00,
2013-07-05 08:42:00,81.4,73.9,30.09,NW,320,6.0,9.0,78,0.00,,CLR,0.00,520.00,VWS V14.01,2013-07-05 12:42:00,
2013-07-05 08:45:00,81.4,73.9,30.09,NW,319,6.0,9.0,78,0.00,,OVC012,0.00,520.00,VWS V14.01,2013-07-05 12:45:00,
2013-07-05 08:47:00,81.7,74.2,30.09,WSW,250,0.0,7.0,78,0.00,,CLR,0.00,534.00,VWS V14.01,2013-07-05 12:47:00,
2013-07-05 08:50:00,81.7,74.2,30.09,WSW,250,0.0,7.0,78,0.00,,OVC012,0.00,534.00,VWS V14.01,2013-07-05 12:50:00,
2013-07-05 08:52:00,82.1,73.8,30.09,WSW,240,3.0,7.0,76,0.00,,CLR,0.00,548.00,VWS V14.01,2013-07-05 12:52:00,
2013-07-05 08:55:00,82.1,73.8,30.09,SW,220,7.0,9.0,76,0.00,,OVC012,0.00,548.00,VWS V14.01,2013-07-05 12:55:00,
2013-07-05 08:57:00,82.2,73.9,30.09,WNW,291,5.0,7.0,76,0.00,,CLR,0.00,561.00,VWS V14.01,2013-07-05 12:57:00,
2013-07-05 09:00:00,82.2,73.9,30.09,WNW,284,5.0,10.0,76,0.00,,OVC012,0.00,561.00,VWS V14.01,2013-07-05 13:00:00,
2013-07-05 09:03:00,82.3,73.6,30.09,West,259,2.0,4.0,75,0.00,,CLR,0.00,580.00,VWS V14.01,2013-07-05 13:03:00,
2013-07-05 09:05:00,82.3,73.6,30.09,WSW,256,4.0,9.0,75,0.00,,OVC012,0.00,577.00,VWS V14.01,2013-07-05 13:05:00,
2013-07-05 09:08:00,82.7,74.0,30.09,West,280,6.0,7.0,75,0.00,,CLR,0.00,594.00,VWS V14.01,2013-07-05 13:08:00,
2013-07-05 09:10:00,82.6,73.9,30.09,WNW,294,2.0,8.0,75,0.00,,OVC012,0.00,591.00,VWS V14.01,2013-07-05 13:10:00,
2013-07-05 09:13:00,82.9,74.2,30.08,WNW,297,6.0,6.0,75,0.00,,CLR,0.00,608.00,VWS V14.01,2013-07-05 13:13:00,
2013-07-05 09:15:00,82.9,74.2,30.08,WNW,300,4.0,11.0,75,0.00,,OVC012,0.00,603.00,VWS V14.01,2013-07-05 13:15:00,
2013-07-05 09:18:00,83.3,74.2,30.09,WSW,248,2.0,3.0,74,0.00,,CLR,0.00,621.00,VWS V14.01,2013-07-05 13:18:00,
2013-07-05 09:20:00,83.1,74.0,30.08,WSW,254,1.0,6.0,74,0.00,,OVC012,0.00,615.00,VWS V14.01,2013-07-05 13:20:00,
2013-07-05 09:23:00,83.6,74.0,30.08,NW,306,7.0,10.0,73,0.00,,CLR,0.00,628.00,VWS V14.01,2013-07-05 13:23:00,
2013-07-05 09:25:00,83.5,73.9,30.08,SW,228,3.0,8.0,73,0.00,,OVC012,0.00,564.00,VWS V14.01,2013-07-05 13:25:00,
2013-07-05 09:29:00,83.6,74.4,30.08,WSW,248,7.0,8.0,74,0.00,,CLR,0.00,640.00,VWS V14.01,2013-07-05 13:29:00,
2013-07-05 09:30:00,83.6,74.0,30.08,WNW,292,3.0,10.0,73,0.00,,OVC012,0.00,642.00,VWS V14.01,2013-07-05 13:30:00,
2013-07-05 09:34:00,83.6,73.6,30.08,WSW,254,3.0,8.0,72,0.00,,CLR,0.00,656.00,VWS V14.01,2013-07-05 13:34:00,
2013-07-05 09:35:00,83.6,73.6,30.08,SW,219,8.0,11.0,72,0.00,,OVC012,0.00,652.00,VWS V14.01,2013-07-05 13:35:00,
2013-07-05 09:39:00,84.2,74.2,30.08,WSW,248,4.0,7.0,72,0.00,,CLR,0.00,668.00,VWS V14.01,2013-07-05 13:39:00,
2013-07-05 09:40:00,83.9,73.9,30.08,West,263,3.0,8.0,72,0.00,,OVC012,0.00,657.00,VWS V14.01,2013-07-05 13:40:00,
2013-07-05 09:44:00,84.7,74.7,30.08,SW,236,4.0,6.0,72,0.00,,CLR,0.00,677.00,VWS V14.01,2013-07-05 13:44:00,
2013-07-05 09:45:00,84.5,74.5,30.08,SW,225,1.0,7.0,72,0.00,,OVC012,0.00,668.00,VWS V14.01,2013-07-05 13:45:00,
2013-07-05 09:50:00,84.7,73.4,30.08,SW,223,7.0,13.0,69,0.00,,CLR,0.00,689.00,VWS V14.01,2013-07-05 13:50:00,
2013-07-05 09:55:00,84.4,73.6,30.08,WNW,298,3.0,9.0,70,0.00,,CLR,0.00,703.00,VWS V14.01,2013-07-05 13:55:00,
2013-07-05 10:00:00,84.7,74.3,30.08,WNW,289,3.0,5.0,71,0.00,,CLR,0.00,714.00,VWS V14.01,2013-07-05 14:00:00,
2013-07-05 10:05:00,84.7,73.8,30.08,West,271,6.0,10.0,70,0.00,,CLR,0.00,722.00,VWS V14.01,2013-07-05 14:05:00,
2013-07-05 10:10:00,84.6,73.7,30.08,WSW,244,7.0,9.0,70,0.00,,CLR,0.00,728.00,VWS V14.01,2013-07-05 14:10:00,
2013-07-05 10:15:00,84.7,73.4,30.08,WSW,256,2.0,9.0,69,0.00,,OVC012,0.00,733.00,VWS V14.01,2013-07-05 14:15:00,
2013-07-05 10:16:00,84.9,74.0,30.08,West,279,2.0,8.0,70,0.00,,CLR,0.00,721.00,VWS V14.01,2013-07-05 14:16:00,
2013-07-05 10:20:00,84.9,74.0,30.08,West,279,2.0,8.0,70,0.00,,OVC012,0.00,721.00,VWS V14.01,2013-07-05 14:20:00,
2013-07-05 10:21:00,85.3,74.4,30.08,West,270,5.0,7.0,70,0.00,,CLR,0.00,742.00,VWS V14.01,2013-07-05 14:21:00,
2013-07-05 10:25:00,85.3,74.0,30.08,South,177,5.0,7.0,69,0.00,,OVC012,0.00,749.00,VWS V14.01,2013-07-05 14:25:00,
2013-07-05 10:26:00,85.6,74.3,30.08,West,273,2.0,9.0,69,0.00,,CLR,0.00,761.00,VWS V14.01,2013-07-05 14:26:00,
2013-07-05 10:30:00,85.7,74.8,30.08,West,263,5.0,9.0,70,0.00,,OVC012,0.00,761.00,VWS V14.01,2013-07-05 14:30:00,
2013-07-05 10:31:00,85.7,74.4,30.08,West,273,3.0,9.0,69,0.00,,CLR,0.00,770.00,VWS V14.01,2013-07-05 14:31:00,
2013-07-05 10:35:00,85.7,74.4,30.08,West,273,0.0,9.0,69,0.00,,OVC012,0.00,775.00,VWS V14.01,2013-07-05 14:35:00,
2013-07-05 10:36:00,85.9,74.1,30.07,WSW,248,2.0,6.0,68,0.00,,CLR,0.00,779.00,VWS V14.01,2013-07-05 14:36:00,
2013-07-05 10:40:00,86.0,74.2,30.07,WSW,237,5.0,6.0,68,0.00,,OVC012,0.00,779.00,VWS V14.01,2013-07-05 14:40:00,
2013-07-05 10:41:00,86.1,74.3,30.08,WNW,282,3.0,9.0,68,0.00,,CLR,0.00,788.00,VWS V14.01,2013-07-05 14:41:00,
2013-07-05 10:45:00,86.1,74.3,30.08,NW,310,8.0,9.0,68,0.00,,OVC012,0.00,789.00,VWS V14.01,2013-07-05 14:45:00,
2013-07-05 10:46:00,86.1,74.3,30.07,NW,312,6.0,8.0,68,0.00,,CLR,0.00,788.00,VWS V14.01,2013-07-05 14:46:00,
2013-07-05 10:50:00,86.1,74.3,30.07,NW,310,3.0,8.0,68,0.00,,OVC012,0.00,789.00,VWS V14.01,2013-07-05 14:50:00,
2013-07-05 10:51:00,86.1,74.8,30.07,WSW,237,1.0,7.0,69,0.00,,CLR,0.00,807.00,VWS V14.01,2013-07-05 14:51:00,
2013-07-05 10:55:00,86.2,74.4,30.07,West,273,5.0,7.0,68,0.00,,OVC012,0.00,807.00,VWS V14.01,2013-07-05 14:55:00,
2013-07-05 10:57:00,86.4,73.7,30.08,West,271,3.0,10.0,66,0.00,,CLR,0.00,810.00,VWS V14.01,2013-07-05 14:57:00,
2013-07-05 11:00:00,86.4,74.6,30.08,West,279,3.0,10.0,68,0.00,,OVC012,0.00,810.00,VWS V14.01,2013-07-05 15:00:00,
2013-07-05 11:02:00,86.5,74.2,30.07,WNW,302,2.0,8.0,67,0.00,,CLR,0.00,812.00,VWS V14.01,2013-07-05 15:02:00,
2013-07-05 11:05:00,86.5,74.2,30.07,WNW,302,1.0,8.0,67,0.00,,OVC012,0.00,812.00,VWS V14.01,2013-07-05 15:05:00,
2013-07-05 11:07:00,86.6,74.3,30.07,West,276,1.0,9.0,67,0.00,,CLR,0.00,814.00,VWS V14.01,2013-07-05 15:07:00,
2013-07-05 11:10:00,86.6,74.3,30.07,West,276,1.0,9.0,67,0.00,,OVC012,0.00,814.00,VWS V14.01,2013-07-05 15:10:00,
2013-07-05 11:12:00,87.0,74.3,30.07,SW,227,6.0,10.0,66,0.00,,CLR,0.00,830.00,VWS V14.01,2013-07-05 15:12:00,
2013-07-05 11:15:00,87.0,74.3,30.07,SW,227,6.0,10.0,66,0.00,,OVC012,0.00,830.00,VWS V14.01,2013-07-05 15:15:00,
2013-07-05 11:17:00,87.0,74.7,30.07,WSW,252,5.0,12.0,67,0.00,,CLR,0.00,840.00,VWS V14.01,2013-07-05 15:17:00,
2013-07-05 11:20:00,87.0,74.7,30.07,WSW,252,5.0,12.0,67,0.00,,OVC012,0.00,840.00,VWS V14.01,2013-07-05 15:20:00,
2013-07-05 11:22:00,87.3,75.0,30.07,West,264,6.0,8.0,67,0.00,,CLR,0.00,886.00,VWS V14.01,2013-07-05 15:22:00,
2013-07-05 11:25:00,87.3,75.0,30.07,West,264,6.0,8.0,67,0.00,,OVC012,0.00,886.00,VWS V14.01,2013-07-05 15:25:00,
2013-07-05 11:27:00,87.2,74.5,30.07,SW,232,1.0,6.0,66,0.00,,CLR,0.00,865.00,VWS V14.01,2013-07-05 15:27:00,
2013-07-05 11:30:00,87.2,74.5,30.07,SW,232,1.0,6.0,66,0.00,,OVC012,0.00,865.00,VWS V14.01,2013-07-05 15:30:00,
2013-07-05 11:32:00,87.2,74.0,30.07,SW,221,1.0,1.0,65,0.00,,CLR,0.00,861.00,VWS V14.01,2013-07-05 15:32:00,
2013-07-05 11:35:00,87.3,73.6,30.06,SW,221,1.0,11.0,64,0.00,,OVC012,0.00,861.00,VWS V14.01,2013-07-05 15:35:00,
2013-07-05 11:37:00,87.6,74.4,30.06,WSW,242,4.0,4.0,65,0.00,,CLR,0.00,898.00,VWS V14.01,2013-07-05 15:37:00,
2013-07-05 11:40:00,87.6,74.8,30.06,WSW,243,3.0,7.0,66,0.00,,OVC012,0.00,898.00,VWS V14.01,2013-07-05 15:40:00,
2013-07-05 11:42:00,87.5,73.8,30.07,WSW,247,7.0,9.0,64,0.00,,CLR,0.00,693.00,VWS V14.01,2013-07-05 15:42:00,
2013-07-05 11:45:00,87.5,73.8,30.07,WSW,254,6.0,11.0,64,0.00,,OVC012,0.00,693.00,VWS V14.01,2013-07-05 15:45:00,
2013-07-05 11:48:00,87.5,72.9,30.06,WSW,256,4.0,7.0,62,0.00,,CLR,0.00,893.00,VWS V14.01,2013-07-05 15:48:00,
2013-07-05 11:50:00,87.7,74.0,30.06,West,267,4.0,8.0,64,0.00,,CLR,0.00,881.00,VWS V14.01,2013-07-05 15:50:00,
2013-07-05 11:55:00,87.7,74.0,30.06,WSW,248,3.0,8.0,64,0.00,,OVC012,0.00,888.00,VWS V14.01,2013-07-05 15:55:00,
2013-07-05 11:56:00,87.8,74.1,30.06,NW,313,1.0,6.0,64,0.00,,CLR,0.00,937.00,VWS V14.01,2013-07-05 15:56:00,
2013-07-05 12:00:00,88.0,73.8,30.06,West,277,3.0,6.0,63,0.00,,OVC012,0.00,937.00,VWS V14.01,2013-07-05 16:00:00,
2013-07-05 12:01:00,88.2,74.5,30.06,West,261,6.0,10.0,64,0.00,,CLR,0.00,937.00,VWS V14.01,2013-07-05 16:01:00,
2013-07-05 12:05:00,88.1,74.4,30.06,WSW,256,3.0,10.0,64,0.00,,OVC012,0.00,937.00,VWS V14.01,2013-07-05 16:05:00,
2013-07-05 12:06:00,88.4,75.1,30.06,SW,233,2.0,10.0,65,0.00,,CLR,0.00,939.00,VWS V14.01,2013-07-05 16:06:00,
2013-07-05 12:10:00,88.5,74.3,30.06,SW,221,8.0,10.0,63,0.00,,OVC012,0.00,923.00,VWS V14.01,2013-07-05 16:10:00,
2013-07-05 12:11:00,88.4,73.2,30.06,SW,215,5.0,10.0,61,0.00,,CLR,0.00,884.00,VWS V14.01,2013-07-05 16:11:00,
2013-07-05 12:15:00,88.3,72.7,30.06,SW,215,0.0,10.0,60,0.00,,OVC012,0.00,125.00,VWS V14.01,2013-07-05 16:15:00,
2013-07-05 12:16:00,88.5,73.3,30.06,SW,219,5.0,9.0,61,0.00,,CLR,0.00,916.00,VWS V14.01,2013-07-05 16:16:00,
2013-07-05 12:20:00,88.7,73.5,30.06,West,262,5.0,9.0,61,0.00,,OVC012,0.00,919.00,VWS V14.01,2013-07-05 16:20:00,
2013-07-05 12:21:00,88.5,73.3,30.05,West,261,2.0,12.0,61,0.00,,CLR,0.00,914.00,VWS V14.01,2013-07-05 16:21:00,
2013-07-05 12:22:00,88.4,73.2,30.05,West,261,2.0,12.0,61,0.00,,CLR,0.00,914.00,VWS V14.01,2013-07-05 16:22:00,
2013-07-05 12:25:00,88.5,74.3,30.05,South,190,8.0,12.0,63,0.00,,OVC012,0.00,909.00,VWS V14.01,2013-07-05 16:25:00,
2013-07-05 12:27:00,88.7,74.0,30.05,South,187,4.0,11.0,62,0.00,,CLR,0.00,962.00,VWS V14.01,2013-07-05 16:27:00,
2013-07-05 12:30:00,88.7,73.5,30.05,SSW,208,5.0,11.0,61,0.00,,OVC012,0.00,954.00,VWS V14.01,2013-07-05 16:30:00,
2013-07-05 12:32:00,89.0,73.3,30.05,SW,216,1.0,10.0,60,0.00,,CLR,0.00,926.00,VWS V14.01,2013-07-05 16:32:00,
2013-07-05 12:35:00,89.0,72.8,30.05,SW,227,9.0,10.0,59,0.00,,OVC012,0.00,926.00,VWS V14.01,2013-07-05 16:35:00,
2013-07-05 12:37:00,89.1,72.9,30.05,SW,234,7.0,13.0,59,0.00,,CLR,0.00,947.00,VWS V14.01,2013-07-05 16:37:00,
2013-07-05 12:40:00,89.1,72.9,30.05,WSW,239,6.0,13.0,59,0.00,,OVC012,0.00,947.00,VWS V14.01,2013-07-05 16:40:00,
2013-07-05 12:42:00,89.2,72.5,30.05,West,261,4.0,14.0,58,0.00,,CLR,0.00,947.00,VWS V14.01,2013-07-05 16:42:00,
2013-07-05 12:45:00,89.2,72.5,30.05,WSW,254,3.0,14.0,58,0.00,,OVC012,0.00,947.00,VWS V14.01,2013-07-05 16:45:00,
2013-07-05 12:47:00,89.4,73.7,30.05,SW,229,8.0,10.0,60,0.00,,CLR,0.00,991.00,VWS V14.01,2013-07-05 16:47:00,
2013-07-05 12:50:00,89.4,73.7,30.05,WSW,250,8.0,10.0,60,0.00,,OVC012,0.00,991.00,VWS V14.01,2013-07-05 16:50:00,
2013-07-05 12:52:00,89.5,73.8,30.05,SW,234,4.0,12.0,60,0.00,,CLR,0.00,1007.00,VWS V14.01,2013-07-05 16:52:00,
2013-07-05 12:55:00,89.5,73.8,30.05,SW,233,4.0,12.0,60,0.00,,OVC012,0.00,1007.00,VWS V14.01,2013-07-05 16:55:00,
2013-07-05 12:57:00,89.5,73.3,30.05,WSW,244,4.0,7.0,59,0.00,,CLR,0.00,255.00,VWS V14.01,2013-07-05 16:57:00,
2013-07-05 13:00:00,89.5,73.3,30.05,WSW,244,4.0,7.0,59,0.00,,OVC012,0.00,255.00,VWS V14.01,2013-07-05 17:00:00,
2013-07-05 13:02:00,89.7,73.5,30.05,West,261,9.0,12.0,59,0.00,,CLR,0.00,1007.00,VWS V14.01,2013-07-05 17:02:00,
2013-07-05 13:05:00,89.7,73.5,30.05,West,261,9.0,12.0,59,0.00,,OVC012,0.00,1007.00,VWS V14.01,2013-07-05 17:05:00,
2013-07-05 13:07:00,89.7,74.0,30.05,WSW,247,4.0,11.0,60,0.00,,CLR,0.00,851.00,VWS V14.01,2013-07-05 17:07:00,
2013-07-05 13:10:00,89.7,74.0,30.05,WSW,247,4.0,11.0,60,0.00,,OVC012,0.00,851.00,VWS V14.01,2013-07-05 17:10:00,
2013-07-05 13:12:00,89.2,74.0,30.04,West,263,9.0,12.0,61,0.00,,CLR,0.00,181.00,VWS V14.01,2013-07-05 17:12:00,
2013-07-05 13:15:00,89.2,74.0,30.04,West,263,9.0,12.0,61,0.00,,OVC012,0.00,181.00,VWS V14.01,2013-07-05 17:15:00,
2013-07-05 13:17:00,89.4,73.2,30.04,WSW,238,2.0,4.0,59,0.00,,CLR,0.00,167.00,VWS V14.01,2013-07-05 17:17:00,
2013-07-05 13:19:00,89.5,73.3,30.04,South,188,4.0,8.0,59,0.00,,CLR,0.00,113.00,VWS V14.01,2013-07-05 17:19:00,
2013-07-05 13:20:00,89.4,72.7,30.04,SW,227,4.0,9.0,58,0.00,,OVC012,0.00,167.00,VWS V14.01,2013-07-05 17:20:00,
2013-07-05 13:24:00,89.7,74.5,30.04,West,265,4.0,7.0,61,0.00,,CLR,0.00,148.00,VWS V14.01,2013-07-05 17:24:00,
2013-07-05 13:25:00,89.6,74.4,30.04,SW,226,1.0,11.0,61,0.00,,OVC012,0.00,134.00,VWS V14.01,2013-07-05 17:25:00,
2013-07-05 13:29:00,89.4,74.7,30.04,West,269,4.0,8.0,62,0.00,,CLR,0.00,114.00,VWS V14.01,2013-07-05 17:29:00,
2013-07-05 13:30:00,89.6,73.9,30.03,SW,232,6.0,7.0,60,0.00,,OVC012,0.00,171.00,VWS V14.01,2013-07-05 17:30:00,
2013-07-05 13:35:00,89.5,73.3,30.03,SW,236,6.0,11.0,59,0.00,,CLR,0.00,109.00,VWS V14.01,2013-07-05 17:35:00,
2013-07-05 13:40:00,89.8,74.1,30.03,WSW,238,1.0,7.0,60,0.00,,CLR,0.00,107.00,VWS V14.01,2013-07-05 17:40:00,
2013-07-05 13:45:00,90.1,73.3,30.03,WNW,284,5.0,7.0,58,0.00,,CLR,0.00,90.00,VWS V14.01,2013-07-05 17:45:00,
2013-07-05 13:50:00,90.6,74.8,30.03,SSW,192,7.0,9.0,60,0.00,,CLR,0.00,95.00,VWS V14.01,2013-07-05 17:50:00,
2013-07-05 13:55:00,90.5,73.7,30.03,West,261,8.0,11.0,58,0.00,,CLR,0.00,172.00,VWS V14.01,2013-07-05 17:55:00,
2013-07-05 14:00:00,90.5,74.7,30.03,WSW,242,4.0,10.0,60,0.00,,CLR,0.00,610.00,VWS V14.01,2013-07-05 18:00:00,
2013-07-05 14:05:00,90.7,73.4,30.03,West,272,4.0,13.0,57,0.00,,CLR,0.00,612.00,VWS V14.01,2013-07-05 18:05:00,
2013-07-05 14:10:00,90.9,73.6,30.03,West,269,5.0,10.0,57,0.00,,CLR,0.00,657.00,VWS V14.01,2013-07-05 18:10:00,
2013-07-05 14:15:00,90.3,72.5,30.03,WSW,237,7.0,13.0,56,0.00,,CLR,0.00,146.00,VWS V14.01,2013-07-05 18:15:00,
2013-07-05 14:20:00,89.9,73.2,30.03,SW,224,7.0,11.0,58,0.00,,CLR,0.00,877.00,VWS V14.01,2013-07-05 18:20:00,
2013-07-05 14:25:00,90.3,72.5,30.03,West,265,9.0,14.0,56,0.00,,CLR,0.00,877.00,VWS V14.01,2013-07-05 18:25:00,
2013-07-05 14:30:00,90.5,72.7,30.03,WSW,254,13.0,14.0,56,0.00,,CLR,0.00,854.00,VWS V14.01,2013-07-05 18:30:00,
2013-07-05 14:35:00,90.4,72.6,30.02,WSW,257,5.0,11.0,56,0.00,,CLR,0.00,258.00,VWS V14.01,2013-07-05 18:35:00,
2013-07-05 14:40:00,90.3,72.5,30.02,WSW,237,6.0,11.0,56,0.00,,OVC012,0.00,274.00,VWS V14.01,2013-07-05 18:40:00,
2013-07-05 14:41:00,90.2,73.4,30.02,West,265,4.0,12.0,58,0.00,,CLR,0.00,817.00,VWS V14.01,2013-07-05 18:41:00,
2013-07-05 14:45:00,90.3,73.5,30.02,WSW,245,6.0,12.0,58,0.00,,OVC012,0.00,788.00,VWS V14.01,2013-07-05 18:45:00,
2013-07-05 14:46:00,90.5,72.7,30.02,West,265,5.0,13.0,56,0.00,,CLR,0.00,768.00,VWS V14.01,2013-07-05 18:46:00,
2013-07-05 14:50:00,90.7,73.4,30.02,West,265,8.0,13.0,57,0.00,,OVC012,0.00,763.00,VWS V14.01,2013-07-05 18:50:00,
2013-07-05 14:51:00,90.6,73.3,30.02,WSW,256,5.0,12.0,57,0.00,,CLR,0.00,775.00,VWS V14.01,2013-07-05 18:51:00,
2013-07-05 14:55:00,90.7,72.9,30.02,SW,232,7.0,12.0,56,0.00,,OVC012,0.00,773.00,VWS V14.01,2013-07-05 18:55:00,
2013-07-05 14:56:00,91.1,73.2,30.01,SSW,209,5.0,10.0,56,0.00,,CLR,0.00,759.00,VWS V14.01,2013-07-05 18:56:00,
2013-07-05 15:00:00,91.2,72.8,30.02,SSW,209,10.0,10.0,55,0.00,,OVC012,0.00,749.00,VWS V14.01,2013-07-05 19:00:00,
2013-07-05 15:01:00,91.2,73.3,30.02,WSW,253,8.0,10.0,56,0.00,,CLR,0.00,803.00,VWS V14.01,2013-07-05 19:01:00,
2013-07-05 15:05:00,91.3,72.9,30.01,WSW,252,5.0,10.0,55,0.00,,OVC012,0.00,786.00,VWS V14.01,2013-07-05 19:05:00,
2013-07-05 15:06:00,91.4,71.9,30.01,West,269,10.0,16.0,53,0.00,,CLR,0.00,758.00,VWS V14.01,2013-07-05 19:06:00,
2013-07-05 15:10:00,91.4,72.4,30.01,SSW,213,7.0,16.0,54,0.00,,OVC012,0.00,752.00,VWS V14.01,2013-07-05 19:10:00,
2013-07-05 15:11:00,91.2,71.1,30.01,WSW,247,16.0,16.0,52,0.00,,CLR,0.00,735.00,VWS V14.01,2013-07-05 19:11:00,
2013-07-05 15:15:00,91.1,71.6,30.01,SW,220,5.0,16.0,53,0.00,,OVC012,0.00,726.00,VWS V14.01,2013-07-05 19:15:00,
2013-07-05 15:16:00,91.1,71.0,30.01,WNW,302,4.0,14.0,52,0.00,,CLR,0.00,724.00,VWS V14.01,2013-07-05 19:16:00,
2013-07-05 15:20:00,91.1,71.6,30.00,WSW,250,5.0,14.0,53,0.00,,OVC012,0.00,715.00,VWS V14.01,2013-07-05 19:20:00,
2013-07-05 15:21:00,91.6,72.6,30.01,SW,229,4.0,12.0,54,0.00,,CLR,0.00,722.00,VWS V14.01,2013-07-05 19:21:00,
2013-07-05 15:25:00,91.6,72.6,30.01,SW,219,6.0,12.0,54,0.00,,OVC012,0.00,710.00,VWS V14.01,2013-07-05 19:25:00,
2013-07-05 15:26:00,91.4,71.9,30.00,WSW,238,4.0,12.0,53,0.00,,CLR,0.00,686.00,VWS V14.01,2013-07-05 19:26:00,
2013-07-05 15:30:00,91.4,71.9,30.00,SW,229,3.0,12.0,53,0.00,,OVC012,0.00,701.00,VWS V14.01,2013-07-05 19:30:00,
2013-07-05 15:31:00,91.3,72.9,30.00,WSW,242,4.0,10.0,55,0.00,,CLR,0.00,733.00,VWS V14.01,2013-07-05 19:31:00,
2013-07-05 15:35:00,91.3,72.3,30.00,SW,227,8.0,10.0,54,0.00,,OVC012,0.00,733.00,VWS V14.01,2013-07-05 19:35:00,
2013-07-05 15:36:00,91.5,72.5,30.00,WSW,252,6.0,12.0,54,0.00,,CLR,0.00,158.00,VWS V14.01,2013-07-05 19:36:00,
2013-07-05 15:40:00,91.4,72.4,30.00,SW,225,10.0,12.0,54,0.00,,OVC012,0.00,158.00,VWS V14.01,2013-07-05 19:40:00,
2013-07-05 15:41:00,91.1,72.2,30.00,SW,229,8.0,11.0,54,0.00,,CLR,0.00,114.00,VWS V14.01,2013-07-05 19:41:00,
2013-07-05 15:45:00,91.0,72.1,30.00,SW,227,5.0,11.0,54,0.00,,OVC012,0.00,144.00,VWS V14.01,2013-07-05 19:45:00,
2013-07-05 15:46:00,91.1,73.2,30.00,WSW,240,2.0,7.0,56,0.00,,CLR,0.00,652.00,VWS V14.01,2013-07-05 19:46:00,
2013-07-05 15:50:00,91.1,73.2,30.00,WSW,253,10.0,15.0,56,0.00,,OVC012,0.00,642.00,VWS V14.01,2013-07-05 19:50:00,
2013-07-05 15:52:00,91.3,72.9,30.00,SSW,193,4.0,15.0,55,0.00,,CLR,0.00,629.00,VWS V14.01,2013-07-05 19:52:00,
2013-07-05 15:55:00,91.3,73.4,30.00,WSW,257,5.0,15.0,56,0.00,,OVC012,0.00,629.00,VWS V14.01,2013-07-05 19:55:00,
2013-07-05 15:57:00,91.2,72.8,30.00,SSW,207,6.0,12.0,55,0.00,,CLR,0.00,635.00,VWS V14.01,2013-07-05 19:57:00,
2013-07-05 16:00:00,91.3,72.9,30.00,SSW,213,7.0,12.0,55,0.00,,OVC012,0.00,635.00,VWS V14.01,2013-07-05 20:00:00,
2013-07-05 16:02:00,90.8,72.4,29.99,SW,236,3.0,15.0,55,0.00,,CLR,0.00,130.00,VWS V14.01,2013-07-05 20:02:00,
2013-07-05 16:05:00,90.8,72.4,29.99,WSW,240,10.0,15.0,55,0.00,,OVC012,0.00,130.00,VWS V14.01,2013-07-05 20:05:00,
2013-07-05 16:07:00,90.5,72.7,29.99,SSW,209,5.0,11.0,56,0.00,,CLR,0.00,691.00,VWS V14.01,2013-07-05 20:07:00,
2013-07-05 16:10:00,90.5,72.7,29.99,SW,227,5.0,11.0,56,0.00,,OVC012,0.00,691.00,VWS V14.01,2013-07-05 20:10:00,
2013-07-05 16:12:00,90.6,72.8,29.99,WSW,250,2.0,12.0,56,0.00,,CLR,0.00,691.00,VWS V14.01,2013-07-05 20:12:00,
2013-07-05 16:15:00,90.6,72.8,29.99,WNW,287,4.0,12.0,56,0.00,,OVC012,0.00,603.00,VWS V14.01,2013-07-05 20:15:00,
2013-07-05 16:17:00,91.0,71.5,29.99,SW,223,10.0,20.0,53,0.00,,CLR,0.00,584.00,VWS V14.01,2013-07-05 20:17:00,
2013-07-05 16:20:00,91.0,71.5,29.99,WSW,245,12.0,20.0,53,0.00,,OVC012,0.00,584.00,VWS V14.01,2013-07-05 20:20:00,
2013-07-05 16:22:00,91.1,71.6,29.99,WSW,243,4.0,13.0,53,0.00,,CLR,0.00,557.00,VWS V14.01,2013-07-05 20:22:00,
2013-07-05 16:25:00,91.2,71.7,29.99,West,269,6.0,13.0,53,0.00,,OVC012,0.00,555.00,VWS V14.01,2013-07-05 20:25:00,
2013-07-05 16:27:00,91.5,72.0,29.98,WSW,258,7.0,12.0,53,0.00,,CLR,0.00,548.00,VWS V14.01,2013-07-05 20:27:00,
2013-07-05 16:30:00,91.5,72.0,29.98,West,265,4.0,12.0,53,0.00,,OVC012,0.00,548.00,VWS V14.01,2013-07-05 20:30:00,
2013-07-05 16:32:00,91.5,72.0,29.99,West,263,6.0,11.0,53,0.00,,CLR,0.00,552.00,VWS V14.01,2013-07-05 20:32:00,
2013-07-05 16:35:00,91.5,72.0,29.99,West,263,6.0,11.0,53,0.00,,OVC012,0.00,552.00,VWS V14.01,2013-07-05 20:35:00,
2013-07-05 16:37:00,91.8,71.7,29.99,WSW,241,9.0,13.0,52,0.00,,CLR,0.00,520.00,VWS V14.01,2013-07-05 20:37:00,
2013-07-05 16:40:00,91.8,71.7,29.99,WSW,241,9.0,13.0,52,0.00,,OVC012,0.00,520.00,VWS V14.01,2013-07-05 20:40:00,
2013-07-05 16:42:00,91.8,72.2,29.99,West,261,5.0,12.0,53,0.00,,CLR,0.00,506.00,VWS V14.01,2013-07-05 20:42:00,
2013-07-05 16:45:00,91.8,72.2,29.99,West,261,5.0,12.0,53,0.00,,OVC012,0.00,506.00,VWS V14.01,2013-07-05 20:45:00,
2013-07-05 16:47:00,91.9,72.3,29.99,WSW,243,4.0,13.0,53,0.00,,CLR,0.00,496.00,VWS V14.01,2013-07-05 20:47:00,
2013-07-05 16:50:00,91.9,72.3,29.99,WSW,243,4.0,13.0,53,0.00,,OVC012,0.00,496.00,VWS V14.01,2013-07-05 20:50:00,
2013-07-05 16:52:00,91.8,71.1,29.99,WSW,245,13.0,14.0,51,0.00,,CLR,0.00,480.00,VWS V14.01,2013-07-05 20:52:00,
2013-07-05 16:55:00,91.8,71.1,29.99,WSW,245,13.0,14.0,51,0.00,,OVC012,0.00,480.00,VWS V14.01,2013-07-05 20:55:00,
2013-07-05 16:57:00,91.6,71.5,29.99,WSW,257,4.0,14.0,52,0.00,,CLR,0.00,466.00,VWS V14.01,2013-07-05 20:57:00,
2013-07-05 17:00:00,91.6,71.5,29.99,WSW,257,4.0,14.0,52,0.00,,OVC012,0.00,466.00,VWS V14.01,2013-07-05 21:00:00,
2013-07-05 17:02:00,91.4,72.4,29.99,WSW,255,2.0,10.0,54,0.00,,CLR,0.00,478.00,VWS V14.01,2013-07-05 21:02:00,
2013-07-05 17:05:00,91.4,72.4,29.99,WSW,255,2.0,10.0,54,0.00,,OVC012,0.00,478.00,VWS V14.01,2013-07-05 21:05:00,
2013-07-05 17:06:00,91.3,72.9,29.99,WNW,284,4.0,15.0,55,0.00,,CLR,0.00,497.00,VWS V14.01,2013-07-05 21:06:00,
2013-07-05 17:10:00,91.3,72.9,29.99,SW,228,5.0,15.0,55,0.00,,OVC012,0.00,221.00,VWS V14.01,2013-07-05 21:10:00,
2013-07-05 17:11:00,91.1,73.2,29.99,SW,230,13.0,13.0,56,0.00,,CLR,0.00,461.00,VWS V14.01,2013-07-05 21:11:00,
2013-07-05 17:15:00,91.0,73.1,29.99,WSW,256,5.0,13.0,56,0.00,,OVC012,0.00,450.00,VWS V14.01,2013-07-05 21:15:00,
2013-07-05 17:16:00,91.1,73.2,29.99,WSW,252,9.0,14.0,56,0.00,,CLR,0.00,438.00,VWS V14.01,2013-07-05 21:16:00,
2013-07-05 17:20:00,91.0,73.1,29.99,SW,227,7.0,14.0,56,0.00,,OVC012,0.00,431.00,VWS V14.01,2013-07-05 21:20:00,
2013-07-05 17:21:00,91.1,73.8,29.98,SSW,209,5.0,10.0,57,0.00,,CLR,0.00,410.00,VWS V14.01,2013-07-05 21:21:00,
2013-07-05 17:25:00,91.1,73.8,29.98,South,184,6.0,10.0,57,0.00,,OVC012,0.00,343.00,VWS V14.01,2013-07-05 21:25:00,
2013-07-05 17:26:00,90.9,73.6,29.99,SW,221,5.0,12.0,57,0.00,,CLR,0.00,278.00,VWS V14.01,2013-07-05 21:26:00,
2013-07-05 17:30:00,90.8,73.5,29.98,West,267,4.0,12.0,57,0.00,,OVC012,0.00,229.00,VWS V14.01,2013-07-05 21:30:00,
2013-07-05 17:31:00,90.6,73.3,29.98,South,190,6.0,14.0,57,0.00,,CLR,0.00,250.00,VWS V14.01,2013-07-05 21:31:00,
2013-07-05 17:35:00,90.5,73.2,29.98,WSW,241,5.0,14.0,57,0.00,,OVC012,0.00,178.00,VWS V14.01,2013-07-05 21:35:00,
2013-07-05 17:36:00,90.5,72.1,29.98,West,259,8.0,16.0,55,0.00,,CLR,0.00,353.00,VWS V14.01,2013-07-05 21:36:00,
2013-07-05 17:40:00,90.5,72.1,29.98,WSW,256,6.0,16.0,55,0.00,,OVC012,0.00,353.00,VWS V14.01,2013-07-05 21:40:00,
2013-07-05 17:41:00,90.5,71.6,29.98,West,271,5.0,14.0,54,0.00,,CLR,0.00,345.00,VWS V14.01,2013-07-05 21:41:00,
2013-07-05 17:45:00,90.5,71.6,29.98,SW,235,8.0,14.0,54,0.00,,OVC012,0.00,341.00,VWS V14.01,2013-07-05 21:45:00,
2013-07-05 17:46:00,90.6,71.7,29.98,SW,230,5.0,12.0,54,0.00,,CLR,0.00,330.00,VWS V14.01,2013-07-05 21:46:00,
2013-07-05 17:50:00,90.6,71.7,29.98,WSW,248,5.0,12.0,54,0.00,,OVC012,0.00,327.00,VWS V14.01,2013-07-05 21:50:00,
2013-07-05 17:51:00,90.8,72.4,29.98,WSW,247,3.0,9.0,55,0.00,,CLR,0.00,316.00,VWS V14.01,2013-07-05 21:51:00,
2013-07-05 17:55:00,90.9,73.0,29.98,WSW,258,5.0,9.0,56,0.00,,OVC012,0.00,315.00,VWS V14.01,2013-07-05 21:55:00,
2013-07-05 17:56:00,91.0,72.1,29.98,SW,220,2.0,13.0,54,0.00,,CLR,0.00,302.00,VWS V14.01,2013-07-05 21:56:00,
2013-07-05 18:00:00,91.0,72.1,29.98,WSW,239,6.0,13.0,54,0.00,,OVC012,0.00,299.00,VWS V14.01,2013-07-05 22:00:00,
2013-07-05 18:01:00,90.8,72.4,29.98,West,265,3.0,13.0,55,0.00,,CLR,0.00,292.00,VWS V14.01,2013-07-05 22:01:00,
2013-07-05 18:05:00,90.8,72.4,29.98,WSW,247,13.0,13.0,55,0.00,,OVC012,0.00,292.00,VWS V14.01,2013-07-05 22:05:00,
2013-07-05 18:07:00,90.3,72.5,29.98,WSW,242,0.0,13.0,56,0.00,,CLR,0.00,295.00,VWS V14.01,2013-07-05 22:07:00,
2013-07-05 18:10:00,90.4,72.6,29.98,WSW,241,3.0,13.0,56,0.00,,OVC012,0.00,295.00,VWS V14.01,2013-07-05 22:10:00,
2013-07-05 18:12:00,90.7,72.9,29.98,South,181,10.0,12.0,56,0.00,,CLR,0.00,278.00,VWS V14.01,2013-07-05 22:12:00,
2013-07-05 18:15:00,90.6,72.8,29.98,SSW,205,7.0,12.0,56,0.00,,OVC012,0.00,278.00,VWS V14.01,2013-07-05 22:15:00,
2013-07-05 18:17:00,90.3,73.0,29.98,WSW,241,2.0,8.0,57,0.00,,CLR,0.00,250.00,VWS V14.01,2013-07-05 22:17:00,
2013-07-05 18:20:00,90.4,73.6,29.98,WSW,241,1.0,8.0,58,0.00,,OVC012,0.00,250.00,VWS V14.01,2013-07-05 22:20:00,
2013-07-05 18:22:00,90.4,73.6,29.97,SW,227,4.0,8.0,58,0.00,,CLR,0.00,230.00,VWS V14.01,2013-07-05 22:22:00,
2013-07-05 18:25:00,90.4,73.6,29.97,West,263,2.0,8.0,58,0.00,,OVC012,0.00,230.00,VWS V14.01,2013-07-05 22:25:00,
2013-07-05 18:27:00,90.1,73.3,29.97,WSW,247,2.0,10.0,58,0.00,,CLR,0.00,216.00,VWS V14.01,2013-07-05 22:27:00,
2013-07-05 18:30:00,90.1,73.3,29.97,WSW,247,1.0,10.0,58,0.00,,OVC012,0.00,216.00,VWS V14.01,2013-07-05 22:30:00,
2013-07-05 18:32:00,90.2,72.9,29.97,WSW,246,2.0,10.0,57,0.00,,CLR,0.00,202.00,VWS V14.01,2013-07-05 22:32:00,
2013-07-05 18:35:00,90.2,72.9,29.97,SW,229,5.0,10.0,57,0.00,,OVC012,0.00,202.00,VWS V14.01,2013-07-05 22:35:00,
2013-07-05 18:37:00,90.1,73.3,29.97,SSW,204,3.0,8.0,58,0.00,,CLR,0.00,185.00,VWS V14.01,2013-07-05 22:37:00,
2013-07-05 18:40:00,90.1,73.3,29.97,SSW,205,2.0,8.0,58,0.00,,OVC012,0.00,185.00,VWS V14.01,2013-07-05 22:40:00,
2013-07-05 18:42:00,90.3,74.0,29.97,WNW,303,4.0,5.0,59,0.00,,CLR,0.00,174.00,VWS V14.01,2013-07-05 22:42:00,
2013-07-05 18:45:00,90.3,74.0,29.97,WNW,303,4.0,5.0,59,0.00,,OVC012,0.00,174.00,VWS V14.01,2013-07-05 22:45:00,
2013-07-05 18:47:00,90.1,71.8,29.97,West,263,11.0,12.0,55,0.00,,CLR,0.00,162.00,VWS V14.01,2013-07-05 22:47:00,
2013-07-05 18:50:00,90.1,71.8,29.97,West,263,11.0,12.0,55,0.00,,OVC012,0.00,162.00,VWS V14.01,2013-07-05 22:50:00,
2013-07-05 18:52:00,89.9,72.6,29.97,SW,236,2.0,12.0,57,0.00,,CLR,0.00,146.00,VWS V14.01,2013-07-05 22:52:00,
2013-07-05 18:55:00,89.9,72.6,29.97,SW,236,2.0,12.0,57,0.00,,OVC012,0.00,146.00,VWS V14.01,2013-07-05 22:55:00,
2013-07-05 18:57:00,90.0,72.2,29.97,West,260,3.0,9.0,56,0.00,,CLR,0.00,132.00,VWS V14.01,2013-07-05 22:57:00,
2013-07-05 19:00:00,90.0,72.2,29.97,West,260,3.0,9.0,56,0.00,,OVC012,0.00,132.00,VWS V14.01,2013-07-05 23:00:00,
2013-07-05 19:02:00,89.8,71.5,29.97,WSW,255,4.0,10.0,55,0.00,,CLR,0.00,116.00,VWS V14.01,2013-07-05 23:02:00,
2013-07-05 19:05:00,89.8,71.5,29.97,WSW,255,4.0,10.0,55,0.00,,OVC012,0.00,116.00,VWS V14.01,2013-07-05 23:05:00,
2013-07-05 19:07:00,89.5,71.7,29.97,West,267,4.0,9.0,56,0.00,,CLR,0.00,102.00,VWS V14.01,2013-07-05 23:07:00,
2013-07-05 19:10:00,89.5,71.7,29.97,West,267,4.0,9.0,56,0.00,,OVC012,0.00,102.00,VWS V14.01,2013-07-05 23:10:00,
2013-07-05 19:12:00,89.3,71.6,29.97,SW,234,4.0,11.0,56,0.00,,CLR,0.00,88.00,VWS V14.01,2013-07-05 23:12:00,
2013-07-05 19:15:00,89.3,71.6,29.97,SW,234,4.0,11.0,56,0.00,,OVC012,0.00,88.00,VWS V14.01,2013-07-05 23:15:00,
2013-07-05 19:17:00,89.1,71.9,29.97,West,259,7.0,7.0,57,0.00,,CLR,0.00,77.00,VWS V14.01,2013-07-05 23:17:00,
2013-07-05 19:20:00,89.1,71.9,29.97,West,259,7.0,7.0,57,0.00,,OVC012,0.00,77.00,VWS V14.01,2013-07-05 23:20:00,
2013-07-05 19:22:00,88.9,71.7,29.97,SW,227,4.0,7.0,57,0.00,,CLR,0.00,67.00,VWS V14.01,2013-07-05 23:22:00,
2013-07-05 19:25:00,88.9,71.7,29.97,SW,227,4.0,7.0,57,0.00,,OVC012,0.00,67.00,VWS V14.01,2013-07-05 23:25:00,
2013-07-05 19:27:00,88.4,72.8,29.98,WSW,242,2.0,6.0,60,0.00,,CLR,0.00,56.00,VWS V14.01,2013-07-05 23:27:00,
2013-07-05 19:30:00,88.4,72.8,29.98,WSW,242,2.0,6.0,60,0.00,,OVC012,0.00,56.00,VWS V14.01,2013-07-05 23:30:00,
2013-07-05 19:32:00,87.9,72.8,29.97,SSW,213,1.0,8.0,61,0.00,,CLR,0.00,46.00,VWS V14.01,2013-07-05 23:32:00,
2013-07-05 19:34:00,87.9,72.8,29.97,SW,224,4.0,5.0,61,0.00,,CLR,0.00,42.00,VWS V14.01,2013-07-05 23:34:00,
2013-07-05 19:35:00,87.9,72.8,29.97,SSW,213,1.0,8.0,61,0.00,,OVC012,0.00,46.00,VWS V14.01,2013-07-05 23:35:00,
2013-07-05 19:39:00,87.5,72.9,29.97,WSW,238,6.0,8.0,62,0.00,,CLR,0.00,30.00,VWS V14.01,2013-07-05 23:39:00,
2013-07-05 19:40:00,87.6,73.0,29.97,SW,233,3.0,7.0,62,0.00,,OVC012,0.00,33.00,VWS V14.01,2013-07-05 23:40:00,
2013-07-05 19:44:00,87.0,72.9,29.97,SW,228,5.0,6.0,63,0.00,,CLR,0.00,14.00,VWS V14.01,2013-07-05 23:44:00,
2013-07-05 19:45:00,87.2,73.1,29.97,SW,223,4.0,8.0,63,0.00,,OVC012,0.00,16.00,VWS V14.01,2013-07-05 23:45:00,
2013-07-05 19:49:00,86.6,73.0,29.97,South,186,2.0,6.0,64,0.00,,CLR,0.00,11.00,VWS V14.01,2013-07-05 23:49:00,
2013-07-05 19:50:00,86.8,73.2,29.97,West,273,4.0,6.0,64,0.00,,OVC012,0.00,11.00,VWS V14.01,2013-07-05 23:50:00,
2013-07-05 19:54:00,86.2,73.1,29.97,SSW,209,1.0,7.0,65,0.00,,CLR,0.00,7.00,VWS V14.01,2013-07-05 23:54:00,
2013-07-05 19:55:00,86.4,73.2,29.97,SSW,209,2.0,8.0,65,0.00,,OVC012,0.00,9.00,VWS V14.01,2013-07-05 23:55:00,
2013-07-05 19:56:00,86.0,73.3,29.97,SW,223,5.0,7.0,66,0.00,,CLR,0.00,7.00,VWS V14.01,2013-07-05 23:56:00,
2013-07-05 20:00:00,86.0,73.3,29.97,SW,223,2.0,7.0,66,0.00,,OVC012,0.00,7.00,VWS V14.01,2013-07-06 00:00:00,
2013-07-05 20:01:00,85.7,73.5,29.97,WSW,239,4.0,9.0,67,0.00,,CLR,0.00,5.00,VWS V14.01,2013-07-06 00:01:00,
2013-07-05 20:05:00,85.7,73.5,29.97,SSW,213,2.0,9.0,67,0.00,,OVC012,0.00,5.00,VWS V14.01,2013-07-06 00:05:00,
2013-07-05 20:06:00,85.5,73.7,29.97,WNW,286,2.0,7.0,68,0.00,,CLR,0.00,5.00,VWS V14.01,2013-07-06 00:06:00,
2013-07-05 20:10:00,85.4,73.6,29.97,West,263,1.0,7.0,68,0.00,,OVC012,0.00,0.00,VWS V14.01,2013-07-06 00:10:00,
2013-07-05 20:11:00,85.2,73.9,29.97,SW,227,4.0,10.0,69,0.00,,CLR,0.00,0.00,VWS V14.01,2013-07-06 00:11:00,
2013-07-05 20:15:00,85.2,73.9,29.97,WSW,252,6.0,10.0,69,0.00,,OVC012,0.00,0.00,VWS V14.01,2013-07-06 00:15:00,
2013-07-05 20:16:00,85.0,73.7,29.98,SW,229,5.0,9.0,69,0.00,,CLR,0.00,0.00,VWS V14.01,2013-07-06 00:16:00,
2013-07-05 20:20:00,85.0,73.7,29.98,SSW,205,4.0,9.0,69,0.00,,OVC012,0.00,0.00,VWS V14.01,2013-07-06 00:20:00,
2013-07-05 20:22:00,84.9,74.0,29.97,SW,223,3.0,9.0,70,0.00,,CLR,0.00,0.00,VWS V14.01,2013-07-06 00:22:00,
2013-07-05 20:25:00,84.8,73.9,29.97,SSW,211,0.0,9.0,70,0.00,,OVC012,0.00,0.00,VWS V14.01,2013-07-06 00:25:00,
2013-07-05 20:27:00,84.6,73.7,29.98,SW,233,3.0,7.0,70,0.00,,CLR,0.00,0.00,VWS V14.01,2013-07-06 00:27:00,
2013-07-05 20:30:00,84.6,73.7,29.98,SW,232,5.0,7.0,70,0.00,,OVC012,0.00,0.00,VWS V14.01,2013-07-06 00:30:00,
2013-07-05 20:32:00,84.5,73.7,29.98,SSW,213,4.0,8.0,70,0.00,,CLR,0.00,0.00,VWS V14.01,2013-07-06 00:32:00,
2013-07-05 20:35:00,84.5,73.7,29.98,South,174,7.0,8.0,70,0.00,,OVC012,0.00,0.00,VWS V14.01,2013-07-06 00:35:00,
2013-07-05 20:37:00,84.4,73.6,29.98,SSE,163,2.0,9.0,70,0.00,,CLR,0.00,0.00,VWS V14.01,2013-07-06 00:37:00,
2013-07-05 20:40:00,84.4,73.6,29.98,SSE,163,1.0,9.0,70,0.00,,OVC012,0.00,0.00,VWS V14.01,2013-07-06 00:40:00,
2013-07-05 20:42:00,84.2,73.4,29.98,SSW,209,4.0,10.0,70,0.00,,CLR,0.00,0.00,VWS V14.01,2013-07-06 00:42:00,
2013-07-05 20:45:00,84.2,73.4,29.98,SSW,212,3.0,10.0,70,0.00,,OVC012,0.00,0.00,VWS V14.01,2013-07-06 00:45:00,
2013-07-05 20:47:00,84.1,73.3,29.98,SSW,211,4.0,10.0,70,0.00,,CLR,0.00,0.00,VWS V14.01,2013-07-06 00:47:00,
2013-07-05 20:50:00,84.1,73.3,29.98,West,273,4.0,10.0,70,0.00,,OVC012,0.00,0.00,VWS V14.01,2013-07-06 00:50:00,
2013-07-05 20:52:00,84.0,73.2,29.98,SW,217,3.0,7.0,70,0.00,,CLR,0.00,0.00,VWS V14.01,2013-07-06 00:52:00,
2013-07-05 20:55:00,84.0,73.2,29.98,SW,217,2.0,7.0,70,0.00,,OVC012,0.00,0.00,VWS V14.01,2013-07-06 00:55:00,
2013-07-05 20:57:00,83.8,73.0,29.98,SW,232,6.0,9.0,70,0.00,,CLR,0.00,0.00,VWS V14.01,2013-07-06 00:57:00,
2013-07-05 21:00:00,83.7,72.9,29.98,SW,234,5.0,9.0,70,0.00,,OVC012,0.00,0.00,VWS V14.01,2013-07-06 01:00:00,
2013-07-05 21:02:00,83.6,73.2,29.97,WSW,239,3.0,11.0,71,0.00,,CLR,0.00,0.00,VWS V14.01,2013-07-06 01:02:00,
2013-07-05 21:05:00,83.6,73.2,29.97,WSW,238,4.0,11.0,71,0.00,,OVC012,0.00,0.00,VWS V14.01,2013-07-06 01:05:00,
2013-07-05 21:07:00,83.4,73.0,29.98,WSW,255,3.0,10.0,71,0.00,,CLR,0.00,0.00,VWS V14.01,2013-07-06 01:07:00,
2013-07-05 21:10:00,83.4,73.0,29.98,WSW,255,3.0,10.0,71,0.00,,OVC012,0.00,0.00,VWS V14.01,2013-07-06 01:10:00,
2013-07-05 21:12:00,83.3,72.9,29.98,SSW,197,2.0,9.0,71,0.00,,CLR,0.00,0.00,VWS V14.01,2013-07-06 01:12:00,
2013-07-05 21:15:00,83.3,72.9,29.98,SSW,197,2.0,9.0,71,0.00,,OVC012,0.00,0.00,VWS V14.01,2013-07-06 01:15:00,
2013-07-05 21:17:00,83.2,72.8,29.98,SW,236,2.0,8.0,71,0.00,,CLR,0.00,0.00,VWS V14.01,2013-07-06 01:17:00,
2013-07-05 21:20:00,83.2,72.8,29.98,SW,236,2.0,8.0,71,0.00,,OVC012,0.00,0.00,VWS V14.01,2013-07-06 01:20:00,
2013-07-05 21:22:00,83.1,72.7,29.99,West,263,5.0,7.0,71,0.00,,CLR,0.00,0.00,VWS V14.01,2013-07-06 01:22:00,
2013-07-05 21:25:00,83.1,72.7,29.99,SW,232,4.0,10.0,71,0.00,,OVC012,0.00,0.00,VWS V14.01,2013-07-06 01:25:00,
2013-07-05 21:27:00,83.0,72.6,29.99,SW,226,2.0,4.0,71,0.00,,CLR,0.00,0.00,VWS V14.01,2013-07-06 01:27:00,
2013-07-05 21:28:00,83.1,72.7,29.99,SW,230,4.0,6.0,71,0.00,,CLR,0.00,0.00,VWS V14.01,2013-07-06 01:28:00,
2013-07-05 21:30:00,83.1,72.7,29.99,SW,227,4.0,9.0,71,0.00,,OVC012,0.00,0.00,VWS V14.01,2013-07-06 01:30:00,
2013-07-05 21:33:00,83.0,72.6,29.99,SSW,204,5.0,6.0,71,0.00,,CLR,0.00,0.00,VWS V14.01,2013-07-06 01:33:00,
2013-07-05 21:35:00,83.0,72.6,29.99,WSW,242,3.0,10.0,71,0.00,,OVC012,0.00,0.00,VWS V14.01,2013-07-06 01:35:00,
2013-07-05 21:38:00,82.8,72.4,29.99,SW,219,8.0,8.0,71,0.00,,CLR,0.00,0.00,VWS V14.01,2013-07-06 01:38:00,
2013-07-05 21:40:00,82.9,72.5,29.99,SSW,209,5.0,13.0,71,0.00,,OVC012,0.00,0.00,VWS V14.01,2013-07-06 01:40:00,
2013-07-05 21:43:00,82.7,72.8,30.00,WSW,250,2.0,5.0,72,0.00,,CLR,0.00,0.00,VWS V14.01,2013-07-06 01:43:00,
2013-07-05 21:45:00,82.7,72.8,30.00,SW,219,5.0,10.0,72,0.00,,OVC012,0.00,0.00,VWS V14.01,2013-07-06 01:45:00,
2013-07-05 21:48:00,82.5,72.6,30.00,SSW,199,1.0,6.0,72,0.00,,CLR,0.00,0.00,VWS V14.01,2013-07-06 01:48:00,
2013-07-05 21:50:00,82.6,72.7,30.00,SW,217,1.0,7.0,72,0.00,,OVC012,0.00,0.00,VWS V14.01,2013-07-06 01:50:00,
2013-07-05 21:53:00,82.4,72.9,30.00,SSW,192,3.0,6.0,73,0.00,,CLR,0.00,0.00,VWS V14.01,2013-07-06 01:53:00,
2013-07-05 21:55:00,82.4,72.9,30.00,SSW,207,0.0,6.0,73,0.00,,OVC012,0.00,0.00,VWS V14.01,2013-07-06 01:55:00,
2013-07-05 21:58:00,82.2,72.7,30.00,SSW,193,1.0,4.0,73,0.00,,CLR,0.00,0.00,VWS V14.01,2013-07-06 01:58:00,
2013-07-05 22:00:00,82.2,72.7,30.00,SSW,193,0.0,6.0,73,0.00,,OVC012,0.00,0.00,VWS V14.01,2013-07-06 02:00:00,
2013-07-05 22:04:00,82.0,72.9,30.00,SW,226,4.0,5.0,74,0.00,,CLR,0.00,0.00,VWS V14.01,2013-07-06 02:04:00,
2013-07-05 22:05:00,82.0,72.9,30.00,SSW,194,1.0,5.0,74,0.00,,OVC012,0.00,0.00,VWS V14.01,2013-07-06 02:05:00,
2013-07-05 22:09:00,81.8,72.7,30.00,SW,217,3.0,5.0,74,0.00,,CLR,0.00,0.00,VWS V14.01,2013-07-06 02:09:00,
2013-07-05 22:10:00,81.9,72.8,30.00,SSW,213,2.0,5.0,74,0.00,,OVC012,0.00,0.00,VWS V14.01,2013-07-06 02:10:00,
2013-07-05 22:14:00,81.6,72.9,30.00,South,177,10.0,10.0,75,0.00,,CLR,0.00,0.00,VWS V14.01,2013-07-06 02:14:00,
2013-07-05 22:15:00,81.6,72.9,29.99,SSW,202,3.0,5.0,75,0.00,,OVC012,0.00,0.00,VWS V14.01,2013-07-06 02:15:00,
2013-07-05 22:19:00,81.4,73.1,29.99,SW,221,3.0,5.0,76,0.00,,CLR,0.00,0.00,VWS V14.01,2013-07-06 02:19:00,
2013-07-05 22:20:00,81.4,72.7,29.99,WSW,242,1.0,10.0,75,0.00,,OVC012,0.00,0.00,VWS V14.01,2013-07-06 02:20:00,
2013-07-05 22:24:00,81.2,72.9,29.99,WSW,248,2.0,10.0,76,0.00,,CLR,0.00,0.00,VWS V14.01,2013-07-06 02:24:00,
2013-07-05 22:25:00,81.2,72.9,29.99,WSW,249,3.0,10.0,76,0.00,,CLR,0.00,0.00,VWS V14.01,2013-07-06 02:25:00,
2013-07-05 22:30:00,81.1,73.2,29.99,WSW,242,5.0,6.0,77,0.00,,CLR,0.00,0.00,VWS V14.01,2013-07-06 02:30:00,
2013-07-05 22:35:00,81.1,73.2,29.99,SW,228,11.0,13.0,77,0.00,,CLR,0.00,0.00,VWS V14.01,2013-07-06 02:35:00,
2013-07-05 22:40:00,80.9,73.0,29.98,SSW,213,3.0,10.0,77,0.00,,CLR,0.00,0.00,VWS V14.01,2013-07-06 02:40:00,
2013-07-05 22:45:00,80.8,73.3,29.99,WSW,251,4.0,10.0,78,0.00,,CLR,0.00,0.00,VWS V14.01,2013-07-06 02:45:00,
2013-07-05 22:50:00,80.8,73.3,29.99,WSW,243,6.0,10.0,78,0.00,,CLR,0.00,0.00,VWS V14.01,2013-07-06 02:50:00,
2013-07-05 22:52:00,80.7,73.2,29.99,SW,215,3.0,10.0,78,0.00,,CLR,0.00,0.00,VWS V14.01,2013-07-06 02:52:00,
2013-07-05 22:55:00,80.7,73.2,29.99,SW,215,3.0,10.0,78,0.00,,OVC012,0.00,0.00,VWS V14.01,2013-07-06 02:55:00,
2013-07-05 22:57:00,80.7,73.2,29.99,West,274,4.0,13.0,78,0.00,,CLR,0.00,0.00,VWS V14.01,2013-07-06 02:57:00,
2013-07-05 23:00:00,80.7,73.2,29.99,West,274,4.0,13.0,78,0.00,,OVC012,0.00,0.00,VWS V14.01,2013-07-06 03:00:00,
2013-07-05 23:02:00,80.7,73.2,29.99,SW,218,5.0,10.0,78,0.00,,CLR,0.00,0.00,VWS V14.01,2013-07-06 03:02:00,
2013-07-05 23:05:00,80.7,73.2,29.99,SW,218,5.0,10.0,78,0.00,,OVC012,0.00,0.00,VWS V14.01,2013-07-06 03:05:00,
2013-07-05 23:07:00,80.6,73.1,29.99,WSW,242,4.0,7.0,78,0.00,,CLR,0.00,0.00,VWS V14.01,2013-07-06 03:07:00,
2013-07-05 23:10:00,80.6,73.1,29.99,WSW,242,4.0,7.0,78,0.00,,OVC012,0.00,0.00,VWS V14.01,2013-07-06 03:10:00,
2013-07-05 23:12:00,80.5,73.4,29.99,West,277,4.0,6.0,79,0.00,,CLR,0.00,0.00,VWS V14.01,2013-07-06 03:12:00,
2013-07-05 23:15:00,80.5,73.4,29.99,West,277,4.0,6.0,79,0.00,,OVC012,0.00,0.00,VWS V14.01,2013-07-06 03:15:00,
2013-07-05 23:17:00,80.4,73.3,29.99,West,269,5.0,5.0,79,0.00,,CLR,0.00,0.00,VWS V14.01,2013-07-06 03:17:00,
2013-07-05 23:20:00,80.4,73.3,29.99,West,261,4.0,11.0,79,0.00,,OVC012,0.00,0.00,VWS V14.01,2013-07-06 03:20:00,
2013-07-05 23:22:00,80.3,73.2,29.99,SW,219,1.0,2.0,79,0.00,,CLR,0.00,0.00,VWS V14.01,2013-07-06 03:22:00,
2013-07-05 23:25:00,80.3,73.2,29.99,SW,219,1.0,6.0,79,0.00,,OVC012,0.00,0.00,VWS V14.01,2013-07-06 03:25:00,
2013-07-05 23:27:00,80.2,73.1,29.99,WSW,240,3.0,3.0,79,0.00,,CLR,0.00,0.00,VWS V14.01,2013-07-06 03:27:00,
2013-07-05 23:28:00,80.1,73.0,29.99,WSW,252,2.0,3.0,79,0.00,,CLR,0.00,0.00,VWS V14.01,2013-07-06 03:28:00,
2013-07-05 23:30:00,80.2,73.1,29.99,WSW,251,1.0,5.0,79,0.00,,OVC012,0.00,0.00,VWS V14.01,2013-07-06 03:30:00,
2013-07-05 23:33:00,80.0,73.3,29.99,West,261,4.0,7.0,80,0.00,,CLR,0.00,0.00,VWS V14.01,2013-07-06 03:33:00,
2013-07-05 23:35:00,80.0,73.3,29.99,WSW,251,7.0,10.0,80,0.00,,OVC012,0.00,0.00,VWS V14.01,2013-07-06 03:35:00,
2013-07-05 23:38:00,80.0,73.3,29.99,WSW,248,4.0,6.0,80,0.00,,CLR,0.00,0.00,VWS V14.01,2013-07-06 03:38:00,
2013-07-05 23:40:00,80.0,73.3,29.99,West,262,6.0,8.0,80,0.00,,OVC012,0.00,0.00,VWS V14.01,2013-07-06 03:40:00,
2013-07-05 23:43:00,79.8,73.1,30.00,WSW,240,6.0,6.0,80,0.00,,CLR,0.00,0.00,VWS V14.01,2013-07-06 03:43:00,
2013-07-05 23:45:00,79.9,73.2,30.00,WSW,257,3.0,11.0,80,0.00,,OVC012,0.00,0.00,VWS V14.01,2013-07-06 03:45:00,
2013-07-05 23:48:00,79.8,73.1,30.00,SW,232,3.0,5.0,80,0.00,,CLR,0.00,0.00,VWS V14.01,2013-07-06 03:48:00,
2013-07-05 23:50:00,79.8,73.1,30.00,WSW,257,5.0,7.0,80,0.00,,OVC012,0.00,0.00,VWS V14.01,2013-07-06 03:50:00,
2013-07-05 23:53:00,79.7,73.0,30.00,WSW,241,2.0,4.0,80,0.00,,CLR,0.00,0.00,VWS V14.01,2013-07-06 03:53:00,
2013-07-05 23:55:00,79.7,73.0,30.00,SSW,213,3.0,8.0,80,0.00,,OVC012,0.00,0.00,VWS V14.01,2013-07-06 03:55:00,
2013-07-05 23:58:00,79.7,73.0,30.00,WSW,240,4.0,5.0,80,0.00,,CLR,0.00,0.00,VWS V14.01,2013-07-06 03:58:00,